Time,TemperatureF,DewpointF,PressureIn,WindDirection,WindDirectionDegrees,WindSpeedMPH,WindSpeedGustMPH,Humidity,HourlyPrecipIn,Conditions,Clouds,dailyrainin,SoftwareType,DateUTC
2013-10-29 00:00:00,48.2,35.0,30.19,NE,45,14.2,23.0,60,0.00,,,0.00,Rainwise IP-100,2013-10-29 04:00:00,
2013-10-29 00:01:00,48.2,35.0,30.19,ENE,67,9.8,23.0,60,0.00,,,0.00,Rainwise IP-100,2013-10-29 04:01:00,
2013-10-29 00:03:00,48.2,35.0,30.18,NE,45,18.2,23.0,59,0.00,,,0.00,Rainwise IP-100,2013-10-29 04:03:00,
2013-10-29 00:06:00,48.1,35.0,30.18,NE,45,21.2,24.0,59,0.00,,,0.00,Rainwise IP-100,2013-10-29 04:06:00,
2013-10-29 00:07:00,48.1,35.0,30.18,NE,45,14.9,24.0,58,0.00,,,0.00,Rainwise IP-100,2013-10-29 04:07:00,
2013-10-29 00:09:00,48.1,35.0,30.18,NE,45,21.5,24.0,58,0.00,,,0.00,Rainwise IP-100,2013-10-29 04:09:00,
2013-10-29 00:11:00,48.0,33.0,30.19,NE,45,16.8,23.0,57,0.00,,,0.00,Rainwise IP-100,2013-10-29 04:11:00,
2013-10-29 00:12:00,48.0,33.0,30.19,NE,45,11.9,23.0,57,0.00,,,0.00,Rainwise IP-100,2013-10-29 04:12:00,
2013-10-29 00:14:00,48.0,33.0,30.19,NE,45,21.0,23.0,57,0.00,,,0.00,Rainwise IP-100,2013-10-29 04:14:00,
2013-10-29 00:16:00,47.9,33.0,30.19,NE,45,18.4,22.0,57,0.00,,,0.00,Rainwise IP-100,2013-10-29 04:16:00,
2013-10-29 00:17:00,47.9,33.0,30.19,NE,45,24.0,24.0,57,0.00,,,0.00,Rainwise IP-100,2013-10-29 04:17:00,
2013-10-29 00:18:00,47.9,33.0,30.18,NE,45,18.2,22.0,57,0.00,,,0.00,Rainwise IP-100,2013-10-29 04:18:00,
2013-10-29 00:19:00,47.8,33.0,30.19,NE,45,21.0,24.0,57,0.00,,,0.00,Rainwise IP-100,2013-10-29 04:19:00,
2013-10-29 00:22:00,47.8,33.0,30.18,NE,45,16.3,24.0,57,0.00,,,0.00,Rainwise IP-100,2013-10-29 04:22:00,
2013-10-29 00:23:00,47.7,33.0,30.18,NE,45,17.0,24.0,57,0.00,,,0.00,Rainwise IP-100,2013-10-29 04:23:00,
2013-10-29 00:25:00,47.7,33.0,30.19,NE,45,18.9,24.0,57,0.00,,,0.00,Rainwise IP-100,2013-10-29 04:25:00,
2013-10-29 00:28:00,47.6,33.0,30.19,NE,45,14.7,24.0,57,0.00,,,0.00,Rainwise IP-100,2013-10-29 04:28:00,
2013-10-29 00:29:00,47.6,33.0,30.19,NNE,22,15.6,24.0,57,0.00,,,0.00,Rainwise IP-100,2013-10-29 04:29:00,
2013-10-29 00:32:00,47.5,33.0,30.18,NE,45,16.6,22.0,57,0.00,,,0.00,Rainwise IP-100,2013-10-29 04:32:00,
2013-10-29 00:33:00,47.4,33.0,30.19,NNE,22,14.9,21.0,57,0.00,,,0.00,Rainwise IP-100,2013-10-29 04:33:00,
2013-10-29 00:34:00,47.4,33.0,30.19,NE,45,14.5,21.0,57,0.00,,,0.00,Rainwise IP-100,2013-10-29 04:34:00,
2013-10-29 00:37:00,47.2,33.0,30.18,NE,45,13.5,22.0,58,0.00,,,0.00,Rainwise IP-100,2013-10-29 04:37:00,
2013-10-29 00:38:00,47.2,33.0,30.19,NE,45,11.0,22.0,58,0.00,,,0.00,Rainwise IP-100,2013-10-29 04:38:00,
2013-10-29 00:39:00,47.2,33.0,30.17,NE,45,18.4,22.0,58,0.00,,,0.00,Rainwise IP-100,2013-10-29 04:39:00,
2013-10-29 00:41:00,47.2,33.0,30.18,NE,45,20.8,23.0,58,0.00,,,0.00,Rainwise IP-100,2013-10-29 04:41:00,
2013-10-29 00:42:00,47.1,33.0,30.19,NE,45,16.6,24.0,59,0.00,,,0.00,Rainwise IP-100,2013-10-29 04:42:00,
2013-10-29 00:44:00,47.1,33.0,30.19,NE,45,18.2,24.0,59,0.00,,,0.00,Rainwise IP-100,2013-10-29 04:44:00,
2013-10-29 00:46:00,47.1,33.0,30.19,NE,45,18.4,24.0,59,0.00,,,0.00,Rainwise IP-100,2013-10-29 04:46:00,
2013-10-29 00:47:00,47.0,33.0,30.19,NE,45,21.7,24.0,59,0.00,,,0.00,Rainwise IP-100,2013-10-29 04:47:00,
2013-10-29 00:48:00,47.0,33.0,30.19,ENE,67,10.5,23.0,59,0.00,,,0.00,Rainwise IP-100,2013-10-29 04:48:00,
2013-10-29 00:49:00,46.9,33.0,30.19,NE,45,14.7,23.0,59,0.00,,,0.00,Rainwise IP-100,2013-10-29 04:49:00,
2013-10-29 00:52:00,46.8,33.0,30.19,NE,45,17.5,24.0,59,0.00,,,0.00,Rainwise IP-100,2013-10-29 04:52:00,
2013-10-29 00:53:00,46.7,33.0,30.19,ENE,67,12.1,24.0,59,0.00,,,0.00,Rainwise IP-100,2013-10-29 04:53:00,
2013-10-29 00:54:00,46.7,33.0,30.18,NE,45,18.0,24.0,59,0.00,,,0.00,Rainwise IP-100,2013-10-29 04:54:00,
2013-10-29 00:55:00,46.7,33.0,30.18,NE,45,21.5,24.0,59,0.00,,,0.00,Rainwise IP-100,2013-10-29 04:55:00,
2013-10-29 00:57:00,46.6,33.0,30.19,NE,45,12.8,24.0,59,0.00,,,0.00,Rainwise IP-100,2013-10-29 04:57:00,
2013-10-29 00:59:00,46.6,33.0,30.20,NE,45,18.7,24.0,59,0.00,,,0.00,Rainwise IP-100,2013-10-29 04:59:00,
2013-10-29 01:00:00,46.6,33.0,30.19,ENE,67,13.1,21.0,59,0.00,,,0.00,Rainwise IP-100,2013-10-29 05:00:00,
2013-10-29 01:04:00,46.4,32.0,30.20,NE,45,15.9,21.0,59,0.00,,,0.00,Rainwise IP-100,2013-10-29 05:04:00,
2013-10-29 01:06:00,46.4,33.0,30.19,ENE,67,11.9,23.0,60,0.00,,,0.00,Rainwise IP-100,2013-10-29 05:06:00,
2013-10-29 01:09:00,46.3,33.0,30.19,NE,45,18.7,23.0,60,0.00,,,0.00,Rainwise IP-100,2013-10-29 05:09:00,
2013-10-29 01:10:00,46.3,33.0,30.19,ENE,67,16.1,23.0,60,0.00,,,0.00,Rainwise IP-100,2013-10-29 05:10:00,
2013-10-29 01:11:00,46.3,33.0,30.20,NE,45,14.2,20.0,60,0.00,,,0.00,Rainwise IP-100,2013-10-29 05:11:00,
2013-10-29 01:14:00,46.3,33.0,30.20,NE,45,12.1,20.0,60,0.00,,,0.00,Rainwise IP-100,2013-10-29 05:14:00,
2013-10-29 01:15:00,46.3,33.0,30.19,NE,45,18.2,18.2,60,0.00,,,0.00,Rainwise IP-100,2013-10-29 05:15:00,
2013-10-29 01:17:00,46.2,32.0,30.20,NNE,22,13.1,23.0,59,0.00,,,0.00,Rainwise IP-100,2013-10-29 05:17:00,
2013-10-29 01:18:00,46.2,32.0,30.20,NE,45,21.2,23.0,59,0.00,,,0.00,Rainwise IP-100,2013-10-29 05:18:00,
2013-10-29 01:19:00,46.2,32.0,30.20,NE,45,16.6,23.0,59,0.00,,,0.00,Rainwise IP-100,2013-10-29 05:19:00,
2013-10-29 01:20:00,46.3,32.0,30.20,NE,45,18.0,23.0,59,0.00,,,0.00,Rainwise IP-100,2013-10-29 05:20:00,
2013-10-29 01:22:00,46.3,32.0,30.19,NE,45,14.0,24.0,59,0.00,,,0.00,Rainwise IP-100,2013-10-29 05:22:00,
2013-10-29 01:23:00,46.3,32.0,30.19,NE,45,12.1,24.0,59,0.00,,,0.00,Rainwise IP-100,2013-10-29 05:23:00,
2013-10-29 01:24:00,46.3,32.0,30.19,NE,45,14.7,24.0,59,0.00,,,0.00,Rainwise IP-100,2013-10-29 05:24:00,
2013-10-29 01:25:00,46.3,32.0,30.19,NE,45,11.9,24.0,59,0.00,,,0.00,Rainwise IP-100,2013-10-29 05:25:00,
2013-10-29 01:27:00,46.2,32.0,30.20,NE,45,20.5,22.0,59,0.00,,,0.00,Rainwise IP-100,2013-10-29 05:27:00,
2013-10-29 01:29:00,46.2,32.0,30.20,ENE,67,10.3,21.0,59,0.00,,,0.00,Rainwise IP-100,2013-10-29 05:29:00,
2013-10-29 01:30:00,46.2,32.0,30.19,NE,45,17.3,22.0,59,0.00,,,0.00,Rainwise IP-100,2013-10-29 05:30:00,
2013-10-29 01:31:00,46.1,32.0,30.19,NE,45,14.7,22.0,59,0.00,,,0.00,Rainwise IP-100,2013-10-29 05:31:00,
2013-10-29 01:33:00,46.1,32.0,30.20,NE,45,16.1,22.0,59,0.00,,,0.00,Rainwise IP-100,2013-10-29 05:33:00,
2013-10-29 01:34:00,46.0,32.0,30.19,NE,45,18.4,22.0,59,0.00,,,0.00,Rainwise IP-100,2013-10-29 05:34:00,
2013-10-29 01:35:00,46.0,32.0,30.19,ENE,67,13.1,22.0,59,0.00,,,0.00,Rainwise IP-100,2013-10-29 05:35:00,
2013-10-29 01:36:00,46.0,32.0,30.19,NE,45,13.8,22.0,59,0.00,,,0.00,Rainwise IP-100,2013-10-29 05:36:00,
2013-10-29 01:38:00,46.0,32.0,30.19,NNE,22,16.8,21.0,59,0.00,,,0.00,Rainwise IP-100,2013-10-29 05:38:00,
2013-10-29 01:40:00,46.0,32.0,30.19,NE,45,14.0,20.0,59,0.00,,,0.00,Rainwise IP-100,2013-10-29 05:40:00,
2013-10-29 01:41:00,46.0,32.0,30.20,NE,45,14.7,20.0,59,0.00,,,0.00,Rainwise IP-100,2013-10-29 05:41:00,
2013-10-29 01:44:00,46.0,32.0,30.20,NE,45,11.9,23.0,58,0.00,,,0.00,Rainwise IP-100,2013-10-29 05:44:00,
2013-10-29 01:45:00,45.9,32.0,30.20,NE,45,14.0,23.0,58,0.00,,,0.00,Rainwise IP-100,2013-10-29 05:45:00,
2013-10-29 01:46:00,45.9,32.0,30.20,NNE,22,15.2,23.0,58,0.00,,,0.00,Rainwise IP-100,2013-10-29 05:46:00,
2013-10-29 01:47:00,45.8,32.0,30.19,NE,45,13.5,23.0,58,0.00,,,0.00,Rainwise IP-100,2013-10-29 05:47:00,
2013-10-29 01:49:00,45.8,32.0,30.20,NE,45,10.3,23.0,58,0.00,,,0.00,Rainwise IP-100,2013-10-29 05:49:00,
2013-10-29 01:50:00,45.7,32.0,30.20,NE,45,19.1,23.0,58,0.00,,,0.00,Rainwise IP-100,2013-10-29 05:50:00,
2013-10-29 01:51:00,45.7,32.0,30.20,ENE,67,17.3,23.0,58,0.00,,,0.00,Rainwise IP-100,2013-10-29 05:51:00,
2013-10-29 01:52:00,45.7,32.0,30.20,NE,45,18.0,21.0,58,0.00,,,0.00,Rainwise IP-100,2013-10-29 05:52:00,
2013-10-29 01:54:00,45.6,32.0,30.20,NE,45,17.0,21.0,58,0.00,,,0.00,Rainwise IP-100,2013-10-29 05:54:00,
2013-10-29 01:55:00,45.6,32.0,30.20,NE,45,15.4,21.0,58,0.00,,,0.00,Rainwise IP-100,2013-10-29 05:55:00,
2013-10-29 01:56:00,45.6,32.0,30.21,NE,45,13.1,21.0,58,0.00,,,0.00,Rainwise IP-100,2013-10-29 05:56:00,
2013-10-29 01:57:00,45.6,32.0,30.20,NE,45,11.9,20.0,58,0.00,,,0.00,Rainwise IP-100,2013-10-29 05:57:00,
2013-10-29 01:58:00,45.6,32.0,30.20,NE,45,18.9,20.0,59,0.00,,,0.00,Rainwise IP-100,2013-10-29 05:58:00,
2013-10-29 02:00:00,45.5,32.0,30.20,NE,45,14.2,24.0,59,0.00,,,0.00,Rainwise IP-100,2013-10-29 06:00:00,
2013-10-29 02:01:00,45.5,32.0,30.20,NE,45,11.4,24.0,59,0.00,,,0.00,Rainwise IP-100,2013-10-29 06:01:00,
2013-10-29 02:02:00,45.5,32.0,30.20,ENE,67,11.4,24.0,59,0.00,,,0.00,Rainwise IP-100,2013-10-29 06:02:00,
2013-10-29 02:03:00,45.5,32.0,30.19,NE,45,18.9,24.0,59,0.00,,,0.00,Rainwise IP-100,2013-10-29 06:03:00,
2013-10-29 02:06:00,45.4,32.0,30.20,NE,45,16.3,22.0,59,0.00,,,0.00,Rainwise IP-100,2013-10-29 06:06:00,
2013-10-29 02:07:00,45.4,32.0,30.20,NE,45,15.6,22.0,59,0.00,,,0.00,Rainwise IP-100,2013-10-29 06:07:00,
2013-10-29 02:08:00,45.4,32.0,30.20,NE,45,17.0,22.0,59,0.00,,,0.00,Rainwise IP-100,2013-10-29 06:08:00,
2013-10-29 02:10:00,45.4,32.0,30.20,ENE,67,16.1,20.0,59,0.00,,,0.00,Rainwise IP-100,2013-10-29 06:10:00,
2013-10-29 02:12:00,45.4,32.0,30.21,ENE,67,14.2,21.0,59,0.00,,,0.00,Rainwise IP-100,2013-10-29 06:12:00,
2013-10-29 02:13:00,45.4,31.0,30.20,NE,45,11.7,21.0,58,0.00,,,0.00,Rainwise IP-100,2013-10-29 06:13:00,
2013-10-29 02:14:00,45.3,31.0,30.20,NE,45,14.9,21.0,58,0.00,,,0.00,Rainwise IP-100,2013-10-29 06:14:00,
2013-10-29 02:15:00,45.3,31.0,30.19,NE,45,16.3,21.0,57,0.00,,,0.00,Rainwise IP-100,2013-10-29 06:15:00,
2013-10-29 02:17:00,45.3,31.0,30.20,NE,45,14.9,19.0,57,0.00,,,0.00,Rainwise IP-100,2013-10-29 06:17:00,
2013-10-29 02:18:00,45.3,31.0,30.20,NE,45,15.4,19.0,57,0.00,,,0.00,Rainwise IP-100,2013-10-29 06:18:00,
2013-10-29 02:20:00,45.2,31.0,30.21,NE,45,17.3,21.0,56,0.00,,,0.00,Rainwise IP-100,2013-10-29 06:20:00,
2013-10-29 02:21:00,45.2,31.0,30.20,NE,45,15.4,21.0,56,0.00,,,0.00,Rainwise IP-100,2013-10-29 06:21:00,
2013-10-29 02:22:00,45.2,31.0,30.20,NE,45,11.4,21.0,55,0.00,,,0.00,Rainwise IP-100,2013-10-29 06:22:00,
2013-10-29 02:23:00,45.2,31.0,30.20,NE,45,10.3,18.0,55,0.00,,,0.00,Rainwise IP-100,2013-10-29 06:23:00,
2013-10-29 02:24:00,45.1,31.0,30.20,NE,45,16.3,18.0,55,0.00,,,0.00,Rainwise IP-100,2013-10-29 06:24:00,
2013-10-29 02:25:00,45.1,31.0,30.20,NNE,22,13.8,18.0,55,0.00,,,0.00,Rainwise IP-100,2013-10-29 06:25:00,
2013-10-29 02:26:00,45.1,31.0,30.20,NE,45,13.1,18.0,55,0.00,,,0.00,Rainwise IP-100,2013-10-29 06:26:00,
2013-10-29 02:27:00,45.0,31.0,30.20,ENE,67,11.7,20.0,55,0.00,,,0.00,Rainwise IP-100,2013-10-29 06:27:00,
2013-10-29 02:28:00,45.0,31.0,30.21,NE,45,17.0,20.0,55,0.00,,,0.00,Rainwise IP-100,2013-10-29 06:28:00,
2013-10-29 02:29:00,45.0,31.0,30.19,NE,45,16.3,20.0,55,0.00,,,0.00,Rainwise IP-100,2013-10-29 06:29:00,
2013-10-29 02:30:00,45.0,31.0,30.20,NE,45,12.4,21.0,55,0.00,,,0.00,Rainwise IP-100,2013-10-29 06:30:00,
2013-10-29 02:31:00,45.0,31.0,30.20,ENE,67,12.4,21.0,55,0.00,,,0.00,Rainwise IP-100,2013-10-29 06:31:00,
2013-10-29 02:32:00,45.0,31.0,30.20,NE,45,10.3,21.0,55,0.00,,,0.00,Rainwise IP-100,2013-10-29 06:32:00,
2013-10-29 02:33:00,45.0,31.0,30.20,ENE,67,16.6,21.0,55,0.00,,,0.00,Rainwise IP-100,2013-10-29 06:33:00,
2013-10-29 02:34:00,45.0,31.0,30.20,NE,45,15.6,21.0,55,0.00,,,0.00,Rainwise IP-100,2013-10-29 06:34:00,
2013-10-29 02:35:00,45.0,31.0,30.20,ENE,67,15.2,20.0,55,0.00,,,0.00,Rainwise IP-100,2013-10-29 06:35:00,
2013-10-29 02:36:00,45.0,31.0,30.20,ENE,67,12.6,18.0,55,0.00,,,0.00,Rainwise IP-100,2013-10-29 06:36:00,
2013-10-29 02:37:00,45.0,31.0,30.20,NE,45,14.7,18.0,55,0.00,,,0.00,Rainwise IP-100,2013-10-29 06:37:00,
2013-10-29 02:39:00,45.1,31.0,30.21,NNE,22,16.6,18.0,55,0.00,,,0.00,Rainwise IP-100,2013-10-29 06:39:00,
2013-10-29 02:40:00,45.1,31.0,30.20,NE,45,10.7,18.0,55,0.00,,,0.00,Rainwise IP-100,2013-10-29 06:40:00,
2013-10-29 02:42:00,45.1,31.0,30.20,NE,45,12.8,20.0,56,0.00,,,0.00,Rainwise IP-100,2013-10-29 06:42:00,
2013-10-29 02:43:00,45.1,31.0,30.20,NE,45,10.3,20.0,56,0.00,,,0.00,Rainwise IP-100,2013-10-29 06:43:00,
2013-10-29 02:44:00,45.0,31.0,30.20,NE,45,11.9,20.0,56,0.00,,,0.00,Rainwise IP-100,2013-10-29 06:44:00,
2013-10-29 02:45:00,45.0,31.0,30.20,NE,45,13.5,20.0,56,0.00,,,0.00,Rainwise IP-100,2013-10-29 06:45:00,
2013-10-29 02:47:00,45.0,31.0,30.20,NE,45,11.9,18.0,56,0.00,,,0.00,Rainwise IP-100,2013-10-29 06:47:00,
2013-10-29 02:48:00,45.0,31.0,30.20,NNE,22,10.7,18.0,56,0.00,,,0.00,Rainwise IP-100,2013-10-29 06:48:00,
2013-10-29 02:49:00,44.9,31.0,30.19,ENE,67,15.2,18.0,56,0.00,,,0.00,Rainwise IP-100,2013-10-29 06:49:00,
2013-10-29 02:50:00,44.9,31.0,30.20,NNE,22,15.9,20.0,56,0.00,,,0.00,Rainwise IP-100,2013-10-29 06:50:00,
2013-10-29 02:51:00,44.9,31.0,30.20,NE,45,12.8,20.0,56,0.00,,,0.00,Rainwise IP-100,2013-10-29 06:51:00,
2013-10-29 02:53:00,44.9,31.0,30.20,ENE,67,15.6,20.0,55,0.00,,,0.00,Rainwise IP-100,2013-10-29 06:53:00,
2013-10-29 02:55:00,44.9,31.0,30.19,NE,45,17.5,22.0,55,0.00,,,0.00,Rainwise IP-100,2013-10-29 06:55:00,
2013-10-29 02:56:00,44.9,31.0,30.19,NE,45,10.5,22.0,55,0.00,,,0.00,Rainwise IP-100,2013-10-29 06:56:00,
2013-10-29 02:57:00,44.9,31.0,30.20,ENE,67,10.7,22.0,55,0.00,,,0.00,Rainwise IP-100,2013-10-29 06:57:00,
2013-10-29 02:58:00,44.8,31.0,30.20,NE,45,17.7,21.0,55,0.00,,,0.00,Rainwise IP-100,2013-10-29 06:58:00,
2013-10-29 02:59:00,44.9,31.0,30.20,ENE,67,12.1,21.0,55,0.00,,,0.00,Rainwise IP-100,2013-10-29 06:59:00,
2013-10-29 03:00:00,44.9,31.0,30.20,ENE,67,10.0,21.0,55,0.00,,,0.00,Rainwise IP-100,2013-10-29 07:00:00,
2013-10-29 03:02:00,44.8,31.0,30.20,NE,45,12.6,21.0,55,0.00,,,0.00,Rainwise IP-100,2013-10-29 07:02:00,
2013-10-29 03:03:00,44.8,31.0,30.20,NE,45,11.7,19.0,56,0.00,,,0.00,Rainwise IP-100,2013-10-29 07:03:00,
2013-10-29 03:04:00,44.8,31.0,30.20,ENE,67,8.9,18.0,56,0.00,,,0.00,Rainwise IP-100,2013-10-29 07:04:00,
2013-10-29 03:05:00,44.9,31.0,30.20,NE,45,10.5,18.0,56,0.00,,,0.00,Rainwise IP-100,2013-10-29 07:05:00,
2013-10-29 03:07:00,44.9,31.0,30.20,NE,45,11.4,18.0,57,0.00,,,0.00,Rainwise IP-100,2013-10-29 07:07:00,
2013-10-29 03:08:00,44.9,31.0,30.20,NE,45,13.3,18.0,57,0.00,,,0.00,Rainwise IP-100,2013-10-29 07:08:00,
2013-10-29 03:09:00,44.9,31.0,30.20,NE,45,14.9,17.0,57,0.00,,,0.00,Rainwise IP-100,2013-10-29 07:09:00,
2013-10-29 03:10:00,44.9,31.0,30.20,NNE,22,10.7,18.0,57,0.00,,,0.00,Rainwise IP-100,2013-10-29 07:10:00,
2013-10-29 03:12:00,44.9,31.0,30.20,NE,45,17.7,19.0,57,0.00,,,0.00,Rainwise IP-100,2013-10-29 07:12:00,
2013-10-29 03:13:00,44.9,31.0,30.19,NE,45,11.4,19.0,57,0.00,,,0.00,Rainwise IP-100,2013-10-29 07:13:00,
2013-10-29 03:14:00,44.9,31.0,30.20,ENE,67,8.4,19.0,57,0.00,,,0.00,Rainwise IP-100,2013-10-29 07:14:00,
2013-10-29 03:16:00,44.9,31.0,30.21,NE,45,8.9,19.0,57,0.00,,,0.00,Rainwise IP-100,2013-10-29 07:16:00,
2013-10-29 03:17:00,44.9,31.0,30.21,NE,45,10.3,19.0,57,0.00,,,0.00,Rainwise IP-100,2013-10-29 07:17:00,
2013-10-29 03:18:00,44.9,31.0,30.21,NE,45,13.3,17.0,57,0.00,,,0.00,Rainwise IP-100,2013-10-29 07:18:00,
2013-10-29 03:20:00,44.8,31.0,30.21,NE,45,8.6,17.0,57,0.00,,,0.00,Rainwise IP-100,2013-10-29 07:20:00,
2013-10-29 03:22:00,44.8,31.0,30.21,NE,45,9.6,17.0,57,0.00,,,0.00,Rainwise IP-100,2013-10-29 07:22:00,
2013-10-29 03:23:00,44.8,31.0,30.21,NE,45,13.8,17.0,57,0.00,,,0.00,Rainwise IP-100,2013-10-29 07:23:00,
2013-10-29 03:25:00,44.7,31.0,30.21,NE,45,8.2,14.0,57,0.00,,,0.00,Rainwise IP-100,2013-10-29 07:25:00,
2013-10-29 03:27:00,44.7,31.0,30.21,NNE,22,13.5,14.0,57,0.00,,,0.00,Rainwise IP-100,2013-10-29 07:27:00,
2013-10-29 03:28:00,44.7,31.0,30.20,NE,45,11.9,14.0,58,0.00,,,0.00,Rainwise IP-100,2013-10-29 07:28:00,
2013-10-29 03:29:00,44.7,31.0,30.21,NE,45,11.9,14.0,58,0.00,,,0.00,Rainwise IP-100,2013-10-29 07:29:00,
2013-10-29 03:30:00,44.7,31.0,30.20,NE,45,14.9,17.0,58,0.00,,,0.00,Rainwise IP-100,2013-10-29 07:30:00,
2013-10-29 03:32:00,44.7,31.0,30.20,NE,45,12.1,17.0,58,0.00,,,0.00,Rainwise IP-100,2013-10-29 07:32:00,
2013-10-29 03:33:00,44.7,31.0,30.21,ENE,67,8.4,17.0,58,0.00,,,0.00,Rainwise IP-100,2013-10-29 07:33:00,
2013-10-29 03:34:00,44.7,31.0,30.21,NE,45,12.4,17.0,58,0.00,,,0.00,Rainwise IP-100,2013-10-29 07:34:00,
2013-10-29 03:35:00,44.7,31.0,30.21,NE,45,13.5,17.0,58,0.00,,,0.00,Rainwise IP-100,2013-10-29 07:35:00,
2013-10-29 03:36:00,44.7,31.0,30.20,NE,45,15.9,18.0,58,0.00,,,0.00,Rainwise IP-100,2013-10-29 07:36:00,
2013-10-29 03:38:00,44.8,31.0,30.20,ENE,67,11.9,18.0,58,0.00,,,0.00,Rainwise IP-100,2013-10-29 07:38:00,
2013-10-29 03:39:00,44.8,31.0,30.21,NE,45,13.5,18.0,57,0.00,,,0.00,Rainwise IP-100,2013-10-29 07:39:00,
2013-10-29 03:40:00,44.8,31.0,30.21,NE,45,11.0,18.0,57,0.00,,,0.00,Rainwise IP-100,2013-10-29 07:40:00,
2013-10-29 03:41:00,44.8,31.0,30.21,NE,45,13.5,18.0,57,0.00,,,0.00,Rainwise IP-100,2013-10-29 07:41:00,
2013-10-29 03:43:00,44.8,31.0,30.20,NE,45,15.9,17.0,57,0.00,,,0.00,Rainwise IP-100,2013-10-29 07:43:00,
2013-10-29 03:44:00,44.8,31.0,30.20,NE,45,18.0,18.0,57,0.00,,,0.00,Rainwise IP-100,2013-10-29 07:44:00,
2013-10-29 03:46:00,44.9,31.0,30.21,NE,45,11.2,18.0,57,0.00,,,0.00,Rainwise IP-100,2013-10-29 07:46:00,
2013-10-29 03:48:00,44.8,31.0,30.20,NE,45,16.6,18.0,57,0.00,,,0.00,Rainwise IP-100,2013-10-29 07:48:00,
2013-10-29 03:50:00,44.8,31.0,30.19,NE,45,14.2,18.0,57,0.00,,,0.00,Rainwise IP-100,2013-10-29 07:50:00,
2013-10-29 03:51:00,44.8,31.0,30.20,ENE,67,13.8,18.0,57,0.00,,,0.00,Rainwise IP-100,2013-10-29 07:51:00,
2013-10-29 03:52:00,44.8,31.0,30.20,NE,45,11.4,18.0,58,0.00,,,0.00,Rainwise IP-100,2013-10-29 07:52:00,
2013-10-29 03:53:00,44.8,31.0,30.20,ENE,67,13.1,18.0,58,0.00,,,0.00,Rainwise IP-100,2013-10-29 07:53:00,
2013-10-29 03:55:00,44.8,31.0,30.20,ENE,67,13.8,18.0,58,0.00,,,0.00,Rainwise IP-100,2013-10-29 07:55:00,
2013-10-29 03:56:00,44.8,31.0,30.20,NE,45,10.7,18.0,58,0.00,,,0.00,Rainwise IP-100,2013-10-29 07:56:00,
2013-10-29 03:57:00,44.8,31.0,30.20,NE,45,16.3,18.0,58,0.00,,,0.00,Rainwise IP-100,2013-10-29 07:57:00,
2013-10-29 03:58:00,44.8,31.0,30.20,ENE,67,11.2,18.0,58,0.00,,,0.00,Rainwise IP-100,2013-10-29 07:58:00,
2013-10-29 03:59:00,44.7,31.0,30.20,ENE,67,13.8,16.0,58,0.00,,,0.00,Rainwise IP-100,2013-10-29 07:59:00,
2013-10-29 04:00:00,44.7,31.0,30.20,ENE,67,14.5,16.0,58,0.00,,,0.00,Rainwise IP-100,2013-10-29 08:00:00,
2013-10-29 04:02:00,44.7,32.0,30.20,NE,45,15.6,16.0,59,0.00,,,0.00,Rainwise IP-100,2013-10-29 08:02:00,
2013-10-29 04:04:00,44.6,32.0,30.20,NE,45,11.7,16.0,59,0.00,,,0.00,Rainwise IP-100,2013-10-29 08:04:00,
2013-10-29 04:05:00,44.6,32.0,30.20,NE,45,11.9,16.0,59,0.00,,,0.00,Rainwise IP-100,2013-10-29 08:05:00,
2013-10-29 04:06:00,44.6,32.0,30.20,NE,45,11.4,16.0,59,0.00,,,0.00,Rainwise IP-100,2013-10-29 08:06:00,
2013-10-29 04:07:00,44.6,32.0,30.20,NE,45,12.4,16.0,59,0.00,,,0.00,Rainwise IP-100,2013-10-29 08:07:00,
2013-10-29 04:10:00,44.6,32.0,30.20,ENE,67,15.6,18.0,59,0.00,,,0.00,Rainwise IP-100,2013-10-29 08:10:00,
2013-10-29 04:12:00,44.6,32.0,30.20,NE,45,8.9,18.0,59,0.00,,,0.00,Rainwise IP-100,2013-10-29 08:12:00,
2013-10-29 04:13:00,44.6,31.0,30.20,NE,45,13.1,18.0,58,0.00,,,0.00,Rainwise IP-100,2013-10-29 08:13:00,
2013-10-29 04:14:00,44.6,31.0,30.20,NE,45,16.3,18.0,58,0.00,,,0.00,Rainwise IP-100,2013-10-29 08:14:00,
2013-10-29 04:15:00,44.6,31.0,30.20,NE,45,15.6,17.0,58,0.00,,,0.00,Rainwise IP-100,2013-10-29 08:15:00,
2013-10-29 04:17:00,44.6,31.0,30.20,ENE,67,8.2,17.0,58,0.00,,,0.00,Rainwise IP-100,2013-10-29 08:17:00,
2013-10-29 04:19:00,44.6,31.0,30.20,NE,45,12.6,17.0,58,0.00,,,0.00,Rainwise IP-100,2013-10-29 08:19:00,
2013-10-29 04:21:00,44.5,31.0,30.20,NE,45,14.9,16.0,58,0.00,,,0.00,Rainwise IP-100,2013-10-29 08:21:00,
2013-10-29 04:22:00,44.6,31.0,30.20,ENE,67,11.9,16.0,58,0.00,,,0.00,Rainwise IP-100,2013-10-29 08:22:00,
2013-10-29 04:24:00,44.6,31.0,30.21,NE,45,12.8,16.0,58,0.00,,,0.00,Rainwise IP-100,2013-10-29 08:24:00,
2013-10-29 04:26:00,44.6,31.0,30.21,ENE,67,14.7,16.0,58,0.00,,,0.00,Rainwise IP-100,2013-10-29 08:26:00,
2013-10-29 04:27:00,44.6,31.0,30.21,NE,45,11.9,16.0,58,0.00,,,0.00,Rainwise IP-100,2013-10-29 08:27:00,
2013-10-29 04:28:00,44.6,31.0,30.20,ENE,67,10.3,16.0,58,0.00,,,0.00,Rainwise IP-100,2013-10-29 08:28:00,
2013-10-29 04:31:00,44.6,32.0,30.21,ENE,67,11.7,15.0,59,0.00,,,0.00,Rainwise IP-100,2013-10-29 08:31:00,
2013-10-29 04:32:00,44.6,32.0,30.21,NE,45,9.6,15.0,59,0.00,,,0.00,Rainwise IP-100,2013-10-29 08:32:00,
2013-10-29 04:33:00,44.6,32.0,30.21,NE,45,9.3,14.0,59,0.00,,,0.00,Rainwise IP-100,2013-10-29 08:33:00,
2013-10-29 04:37:00,44.6,31.0,30.21,ENE,67,15.2,17.0,58,0.00,,,0.00,Rainwise IP-100,2013-10-29 08:37:00,
2013-10-29 04:38:00,44.6,31.0,30.21,NE,45,9.1,17.0,58,0.00,,,0.00,Rainwise IP-100,2013-10-29 08:38:00,
2013-10-29 04:43:00,44.8,31.0,30.21,NE,45,7.7,17.0,58,0.00,,,0.00,Rainwise IP-100,2013-10-29 08:43:00,
2013-10-29 04:44:00,44.8,31.0,30.21,NE,45,7.5,17.0,58,0.00,,,0.00,Rainwise IP-100,2013-10-29 08:44:00,
2013-10-29 04:48:00,44.9,31.0,30.21,NNE,22,11.9,16.0,58,0.00,,,0.00,Rainwise IP-100,2013-10-29 08:48:00,
2013-10-29 04:49:00,44.9,31.0,30.21,NE,45,14.2,16.0,58,0.00,,,0.00,Rainwise IP-100,2013-10-29 08:49:00,
2013-10-29 04:53:00,44.8,32.0,30.22,NE,45,7.9,18.0,59,0.00,,,0.00,Rainwise IP-100,2013-10-29 08:53:00,
2013-10-29 04:54:00,44.8,32.0,30.22,NE,45,11.7,18.0,59,0.00,,,0.00,Rainwise IP-100,2013-10-29 08:54:00,
2013-10-29 04:55:00,44.8,32.0,30.21,ENE,67,13.1,18.0,59,0.00,,,0.00,Rainwise IP-100,2013-10-29 08:55:00,
2013-10-29 04:58:00,44.7,32.0,30.21,NE,45,12.1,16.0,60,0.00,,,0.00,Rainwise IP-100,2013-10-29 08:58:00,
2013-10-29 04:59:00,44.7,32.0,30.21,NE,45,16.1,16.1,60,0.00,,,0.00,Rainwise IP-100,2013-10-29 08:59:00,
2013-10-29 05:00:00,44.7,32.0,30.21,NNE,22,13.5,16.0,60,0.00,,,0.00,Rainwise IP-100,2013-10-29 09:00:00,
2013-10-29 05:03:00,44.8,32.0,30.22,NNE,22,14.2,18.0,61,0.00,,,0.00,Rainwise IP-100,2013-10-29 09:03:00,
2013-10-29 05:04:00,44.8,32.0,30.22,NE,45,8.9,18.0,61,0.00,,,0.00,Rainwise IP-100,2013-10-29 09:04:00,
2013-10-29 05:05:00,44.8,32.0,30.22,NE,45,14.2,18.0,61,0.00,,,0.00,Rainwise IP-100,2013-10-29 09:05:00,
2013-10-29 05:09:00,44.8,33.0,30.22,NE,45,7.2,15.0,62,0.00,,,0.00,Rainwise IP-100,2013-10-29 09:09:00,
2013-10-29 05:10:00,44.8,33.0,30.23,NNE,22,8.9,15.0,62,0.00,,,0.00,Rainwise IP-100,2013-10-29 09:10:00,
2013-10-29 05:11:00,44.8,33.0,30.22,NE,45,8.2,15.0,62,0.00,,,0.00,Rainwise IP-100,2013-10-29 09:11:00,
2013-10-29 05:15:00,44.8,33.0,30.23,NE,45,12.8,19.0,63,0.00,,,0.00,Rainwise IP-100,2013-10-29 09:15:00,
2013-10-29 05:16:00,44.8,33.0,30.23,NNE,22,8.6,19.0,64,0.00,,,0.00,Rainwise IP-100,2013-10-29 09:16:00,
2013-10-29 05:17:00,44.7,33.0,30.23,NNE,22,14.0,19.0,64,0.00,,,0.00,Rainwise IP-100,2013-10-29 09:17:00,
2013-10-29 05:20:00,44.6,35.0,30.23,NNE,22,17.3,17.3,66,0.00,,,0.00,Rainwise IP-100,2013-10-29 09:20:00,
2013-10-29 05:21:00,44.5,35.0,30.23,NE,45,12.8,17.0,66,0.00,,,0.00,Rainwise IP-100,2013-10-29 09:21:00,
2013-10-29 05:22:00,44.4,33.0,30.23,NNE,22,7.9,17.0,67,0.00,,,0.00,Rainwise IP-100,2013-10-29 09:22:00,
2013-10-29 05:25:00,44.1,35.0,30.23,NNE,22,15.4,17.0,68,0.00,,,0.00,Rainwise IP-100,2013-10-29 09:25:00,
2013-10-29 05:26:00,44.0,35.0,30.23,NE,45,11.4,16.0,69,0.00,,,0.00,Rainwise IP-100,2013-10-29 09:26:00,
2013-10-29 05:27:00,43.9,35.0,30.23,NE,45,9.6,16.0,69,0.00,,,0.00,Rainwise IP-100,2013-10-29 09:27:00,
2013-10-29 05:28:00,43.9,35.0,30.23,NNE,22,13.3,16.0,69,0.00,,,0.00,Rainwise IP-100,2013-10-29 09:28:00,
2013-10-29 05:29:00,43.9,35.0,30.23,NNE,22,7.7,16.0,69,0.00,,,0.00,Rainwise IP-100,2013-10-29 09:29:00,
2013-10-29 05:31:00,43.8,35.0,30.23,NNE,22,9.1,16.0,69,0.00,,,0.00,Rainwise IP-100,2013-10-29 09:31:00,
2013-10-29 05:32:00,43.8,35.0,30.23,NNE,22,8.6,16.0,69,0.00,,,0.00,Rainwise IP-100,2013-10-29 09:32:00,
2013-10-29 05:33:00,43.8,35.0,30.23,NNE,22,6.8,16.0,69,0.00,,,0.00,Rainwise IP-100,2013-10-29 09:33:00,
2013-10-29 05:34:00,43.7,35.0,30.23,NNE,22,7.5,15.0,70,0.00,,,0.00,Rainwise IP-100,2013-10-29 09:34:00,
2013-10-29 05:37:00,43.7,35.0,30.23,NNE,22,14.0,17.0,70,0.00,,,0.00,Rainwise IP-100,2013-10-29 09:37:00,
2013-10-29 05:38:00,43.7,35.0,30.23,NE,45,10.5,17.0,70,0.00,,,0.00,Rainwise IP-100,2013-10-29 09:38:00,
2013-10-29 05:40:00,43.7,35.0,30.24,NNE,22,12.4,17.0,70,0.00,,,0.00,Rainwise IP-100,2013-10-29 09:40:00,
2013-10-29 05:42:00,43.7,35.0,30.24,NNE,22,14.2,16.0,70,0.00,,,0.00,Rainwise IP-100,2013-10-29 09:42:00,
2013-10-29 05:43:00,43.7,35.0,30.24,NNE,22,15.6,16.0,70,0.00,,,0.00,Rainwise IP-100,2013-10-29 09:43:00,
2013-10-29 05:44:00,43.7,35.0,30.24,NNE,22,12.8,17.0,70,0.00,,,0.00,Rainwise IP-100,2013-10-29 09:44:00,
2013-10-29 05:47:00,43.6,35.0,30.24,NNE,22,10.0,17.0,70,0.00,,,0.00,Rainwise IP-100,2013-10-29 09:47:00,
2013-10-29 05:48:00,43.6,35.0,30.24,NNE,22,13.3,17.0,70,0.00,,,0.00,Rainwise IP-100,2013-10-29 09:48:00,
2013-10-29 05:51:00,43.6,36.0,30.24,NNE,22,14.5,17.0,71,0.00,,,0.00,Rainwise IP-100,2013-10-29 09:51:00,
2013-10-29 05:53:00,43.5,36.0,30.23,NNE,22,9.1,17.0,71,0.00,,,0.00,Rainwise IP-100,2013-10-29 09:53:00,
2013-10-29 05:56:00,43.5,36.0,30.23,NE,45,11.9,17.0,71,0.00,,,0.00,Rainwise IP-100,2013-10-29 09:56:00,
2013-10-29 05:58:00,43.5,36.0,30.24,NE,45,12.6,17.0,71,0.00,,,0.00,Rainwise IP-100,2013-10-29 09:58:00,
2013-10-29 05:59:00,43.5,36.0,30.24,NNE,22,12.1,17.0,71,0.00,,,0.00,Rainwise IP-100,2013-10-29 09:59:00,
2013-10-29 06:02:00,43.5,36.0,30.23,NNE,22,13.1,18.0,71,0.00,,,0.00,Rainwise IP-100,2013-10-29 10:02:00,
2013-10-29 06:03:00,43.5,36.0,30.23,NNE,22,10.7,18.0,71,0.00,,,0.00,Rainwise IP-100,2013-10-29 10:03:00,
2013-10-29 06:04:00,43.5,36.0,30.23,NNE,22,14.2,18.0,71,0.00,,,0.00,Rainwise IP-100,2013-10-29 10:04:00,
2013-10-29 06:07:00,43.6,36.0,30.24,NE,45,11.7,18.0,71,0.00,,,0.00,Rainwise IP-100,2013-10-29 10:07:00,
2013-10-29 06:08:00,43.6,36.0,30.24,NNE,22,13.3,18.0,71,0.00,,,0.00,Rainwise IP-100,2013-10-29 10:08:00,
2013-10-29 06:09:00,43.6,36.0,30.24,NNE,22,13.8,18.0,71,0.00,,,0.00,Rainwise IP-100,2013-10-29 10:09:00,
2013-10-29 06:13:00,43.5,36.0,30.24,NE,45,15.6,16.0,71,0.00,,,0.00,Rainwise IP-100,2013-10-29 10:13:00,
2013-10-29 06:14:00,43.5,36.0,30.24,NNE,22,14.7,16.0,71,0.00,,,0.00,Rainwise IP-100,2013-10-29 10:14:00,
2013-10-29 06:15:00,43.5,36.0,30.24,NNE,22,16.6,16.6,71,0.00,,,0.00,Rainwise IP-100,2013-10-29 10:15:00,
2013-10-29 06:17:00,43.4,35.0,30.24,NNE,22,11.9,17.0,71,0.00,,,0.00,Rainwise IP-100,2013-10-29 10:17:00,
2013-10-29 06:18:00,43.4,35.0,30.24,NNE,22,8.4,17.0,71,0.00,,,0.00,Rainwise IP-100,2013-10-29 10:18:00,
2013-10-29 06:19:00,43.3,35.0,30.24,NNE,22,12.8,17.0,71,0.00,,,0.00,Rainwise IP-100,2013-10-29 10:19:00,
2013-10-29 06:20:00,43.3,35.0,30.24,NNE,22,12.1,17.0,71,0.00,,,0.00,Rainwise IP-100,2013-10-29 10:20:00,
2013-10-29 06:21:00,43.3,35.0,30.24,NNE,22,8.4,14.0,71,0.00,,,0.00,Rainwise IP-100,2013-10-29 10:21:00,
2013-10-29 06:22:00,43.2,35.0,30.24,NE,45,12.4,14.0,71,0.00,,,0.00,Rainwise IP-100,2013-10-29 10:22:00,
2013-10-29 06:23:00,43.2,35.0,30.24,NE,45,11.0,14.0,71,0.00,,,0.00,Rainwise IP-100,2013-10-29 10:23:00,
2013-10-29 06:24:00,43.2,35.0,30.24,NNE,22,9.8,14.0,71,0.00,,,0.00,Rainwise IP-100,2013-10-29 10:24:00,
2013-10-29 06:25:00,43.2,35.0,30.24,NE,45,14.0,15.0,71,0.00,,,0.00,Rainwise IP-100,2013-10-29 10:25:00,
2013-10-29 06:26:00,43.2,35.0,30.24,NE,45,11.2,15.0,71,0.00,,,0.00,Rainwise IP-100,2013-10-29 10:26:00,
2013-10-29 06:28:00,43.2,35.0,30.24,NNE,22,7.9,15.0,71,0.00,,,0.00,Rainwise IP-100,2013-10-29 10:28:00,
2013-10-29 06:29:00,43.2,35.0,30.24,NNE,22,13.8,15.0,71,0.00,,,0.00,Rainwise IP-100,2013-10-29 10:29:00,
2013-10-29 06:30:00,43.1,35.0,30.24,NE,45,10.5,15.0,71,0.00,,,0.00,Rainwise IP-100,2013-10-29 10:30:00,
2013-10-29 06:31:00,43.1,35.0,30.24,NNE,22,12.8,15.0,71,0.00,,,0.00,Rainwise IP-100,2013-10-29 10:31:00,
2013-10-29 06:32:00,43.2,35.0,30.24,NNE,22,11.0,15.0,71,0.00,,,0.00,Rainwise IP-100,2013-10-29 10:32:00,
2013-10-29 06:33:00,43.1,35.0,30.24,NNE,22,6.8,15.0,71,0.00,,,0.00,Rainwise IP-100,2013-10-29 10:33:00,
2013-10-29 06:34:00,43.1,35.0,30.24,NE,45,10.7,15.0,71,0.00,,,0.00,Rainwise IP-100,2013-10-29 10:34:00,
2013-10-29 06:35:00,43.1,35.0,30.24,NNE,22,10.7,14.0,71,0.00,,,0.00,Rainwise IP-100,2013-10-29 10:35:00,
2013-10-29 06:36:00,43.1,35.0,30.24,NE,45,8.4,14.0,71,0.00,,,0.00,Rainwise IP-100,2013-10-29 10:36:00,
2013-10-29 06:37:00,43.1,35.0,30.24,NE,45,10.3,14.0,71,0.00,,,0.00,Rainwise IP-100,2013-10-29 10:37:00,
2013-10-29 06:39:00,43.1,35.0,30.24,NNE,22,12.4,13.0,71,0.00,,,0.00,Rainwise IP-100,2013-10-29 10:39:00,
2013-10-29 06:40:00,43.2,35.0,30.24,NNE,22,12.4,14.0,71,0.00,,,0.00,Rainwise IP-100,2013-10-29 10:40:00,
2013-10-29 06:41:00,43.2,35.0,30.24,NNE,22,11.2,14.0,71,0.00,,,0.00,Rainwise IP-100,2013-10-29 10:41:00,
2013-10-29 06:43:00,43.2,35.0,30.24,NE,45,11.0,14.0,71,0.00,,,0.00,Rainwise IP-100,2013-10-29 10:43:00,
2013-10-29 06:44:00,43.2,35.0,30.24,NNE,22,10.7,14.0,71,0.00,,,0.00,Rainwise IP-100,2013-10-29 10:44:00,
2013-10-29 06:46:00,43.2,35.0,30.24,NNE,22,14.0,14.0,72,0.00,,,0.00,Rainwise IP-100,2013-10-29 10:46:00,
2013-10-29 06:47:00,43.2,35.0,30.23,NNE,22,12.1,15.0,72,0.00,,,0.00,Rainwise IP-100,2013-10-29 10:47:00,
2013-10-29 06:48:00,43.2,35.0,30.24,NNE,22,12.6,15.0,72,0.00,,,0.00,Rainwise IP-100,2013-10-29 10:48:00,
2013-10-29 06:49:00,43.2,35.0,30.24,NNE,22,12.1,15.0,72,0.00,,,0.00,Rainwise IP-100,2013-10-29 10:49:00,
2013-10-29 06:51:00,43.2,35.0,30.23,NNE,22,10.0,15.0,72,0.00,,,0.00,Rainwise IP-100,2013-10-29 10:51:00,
2013-10-29 06:52:00,43.1,35.0,30.23,NNE,22,15.6,15.6,72,0.00,,,0.00,Rainwise IP-100,2013-10-29 10:52:00,
2013-10-29 06:55:00,43.1,35.0,30.24,NNE,22,8.9,15.0,72,0.00,,,0.00,Rainwise IP-100,2013-10-29 10:55:00,
2013-10-29 06:56:00,43.1,35.0,30.24,NNE,22,10.3,15.0,72,0.00,,,0.00,Rainwise IP-100,2013-10-29 10:56:00,
2013-10-29 06:57:00,43.1,35.0,30.24,NNE,22,9.6,15.0,72,0.00,,,0.00,Rainwise IP-100,2013-10-29 10:57:00,
2013-10-29 07:01:00,43.0,35.0,30.24,NE,45,7.9,13.0,72,0.00,,,0.00,Rainwise IP-100,2013-10-29 11:01:00,
2013-10-29 07:02:00,43.0,35.0,30.24,NNE,22,7.9,13.0,72,0.00,,,0.00,Rainwise IP-100,2013-10-29 11:02:00,
2013-10-29 07:03:00,43.0,35.0,30.24,NNE,22,7.2,13.0,72,0.00,,,0.00,Rainwise IP-100,2013-10-29 11:03:00,
2013-10-29 07:06:00,43.1,35.0,30.24,NNE,22,12.1,13.0,72,0.00,,,0.00,Rainwise IP-100,2013-10-29 11:06:00,
2013-10-29 07:07:00,43.1,35.0,30.24,NE,45,11.4,13.0,72,0.00,,,0.00,Rainwise IP-100,2013-10-29 11:07:00,
2013-10-29 07:08:00,43.1,35.0,30.24,NNE,22,10.0,14.0,72,0.00,,,0.00,Rainwise IP-100,2013-10-29 11:08:00,
2013-10-29 07:11:00,43.1,35.0,30.24,NNE,22,11.2,14.0,72,0.00,,,0.00,Rainwise IP-100,2013-10-29 11:11:00,
2013-10-29 07:12:00,43.1,35.0,30.24,NNE,22,13.8,14.0,72,0.00,,,0.00,Rainwise IP-100,2013-10-29 11:12:00,
2013-10-29 07:13:00,43.0,35.0,30.24,NNE,22,14.5,14.5,72,0.00,,,0.00,Rainwise IP-100,2013-10-29 11:13:00,
2013-10-29 07:15:00,43.0,35.0,30.24,NNE,22,11.2,15.0,72,0.00,,,0.00,Rainwise IP-100,2013-10-29 11:15:00,
2013-10-29 07:17:00,43.0,35.0,30.24,NNE,22,11.4,15.0,72,0.00,,,0.00,Rainwise IP-100,2013-10-29 11:17:00,
2013-10-29 07:18:00,43.0,35.0,30.24,NE,45,7.0,14.0,72,0.00,,,0.00,Rainwise IP-100,2013-10-29 11:18:00,
2013-10-29 07:21:00,42.9,35.0,30.24,NNE,22,9.8,14.0,72,0.00,,,0.00,Rainwise IP-100,2013-10-29 11:21:00,
2013-10-29 07:22:00,42.9,35.0,30.24,NNE,22,12.6,14.0,72,0.00,,,0.00,Rainwise IP-100,2013-10-29 11:22:00,
2013-10-29 07:23:00,42.9,35.0,30.24,NNE,22,11.7,14.0,72,0.00,,,0.00,Rainwise IP-100,2013-10-29 11:23:00,
2013-10-29 07:24:00,42.9,35.0,30.24,NE,45,13.1,15.0,73,0.00,,,0.00,Rainwise IP-100,2013-10-29 11:24:00,
2013-10-29 07:26:00,42.9,35.0,30.24,NNE,22,11.2,15.0,73,0.00,,,0.00,Rainwise IP-100,2013-10-29 11:26:00,
2013-10-29 07:28:00,42.9,35.0,30.24,NNE,22,11.0,15.0,73,0.00,,,0.00,Rainwise IP-100,2013-10-29 11:28:00,
2013-10-29 07:29:00,43.0,35.0,30.24,NNE,22,9.6,13.0,73,0.00,,,0.00,Rainwise IP-100,2013-10-29 11:29:00,
2013-10-29 07:30:00,43.0,35.0,30.24,NNE,22,11.2,13.0,73,0.00,,,0.00,Rainwise IP-100,2013-10-29 11:30:00,
2013-10-29 07:33:00,43.0,35.0,30.25,NNE,22,10.3,14.0,73,0.00,,,0.00,Rainwise IP-100,2013-10-29 11:33:00,
2013-10-29 07:34:00,43.0,35.0,30.25,NNE,22,11.0,16.0,73,0.00,,,0.00,Rainwise IP-100,2013-10-29 11:34:00,
2013-10-29 07:35:00,43.0,35.0,30.25,NNE,22,12.8,16.0,73,0.00,,,0.00,Rainwise IP-100,2013-10-29 11:35:00,
2013-10-29 07:38:00,43.1,36.0,30.24,NNE,22,12.6,16.0,74,0.00,,,0.00,Rainwise IP-100,2013-10-29 11:38:00,
2013-10-29 07:39:00,43.1,36.0,30.24,NNE,22,14.7,16.0,74,0.00,,,0.00,Rainwise IP-100,2013-10-29 11:39:00,
2013-10-29 07:40:00,43.2,36.0,30.24,NE,45,14.7,16.0,74,0.00,,,0.00,Rainwise IP-100,2013-10-29 11:40:00,
2013-10-29 07:44:00,43.3,36.0,30.25,NNE,22,14.2,16.0,74,0.00,,,0.00,Rainwise IP-100,2013-10-29 11:44:00,
2013-10-29 07:45:00,43.3,36.0,30.24,NNE,22,8.4,16.0,74,0.00,,,0.00,Rainwise IP-100,2013-10-29 11:45:00,
2013-10-29 07:46:00,43.3,36.0,30.24,NNE,22,7.9,16.0,74,0.00,,,0.00,Rainwise IP-100,2013-10-29 11:46:00,
2013-10-29 07:49:00,43.2,35.0,30.24,NNE,22,11.9,15.0,73,0.00,,,0.00,Rainwise IP-100,2013-10-29 11:49:00,
2013-10-29 07:50:00,43.2,35.0,30.24,NNE,22,11.0,15.0,73,0.00,,,0.00,Rainwise IP-100,2013-10-29 11:50:00,
2013-10-29 07:51:00,43.2,35.0,30.25,NNE,22,13.8,15.0,73,0.00,,,0.00,Rainwise IP-100,2013-10-29 11:51:00,
2013-10-29 07:55:00,43.0,35.0,30.25,NNE,22,9.3,17.0,72,0.00,,,0.00,Rainwise IP-100,2013-10-29 11:55:00,
2013-10-29 07:56:00,42.9,35.0,30.25,NNE,22,13.5,17.0,72,0.00,,,0.00,Rainwise IP-100,2013-10-29 11:56:00,
2013-10-29 07:57:00,42.9,35.0,30.25,NNE,22,13.8,17.0,72,0.00,,,0.00,Rainwise IP-100,2013-10-29 11:57:00,
2013-10-29 07:58:00,42.8,35.0,30.25,NNE,22,14.2,17.0,72,0.00,,,0.00,Rainwise IP-100,2013-10-29 11:58:00,
2013-10-29 07:59:00,42.8,35.0,30.25,NE,45,14.5,16.0,72,0.00,,,0.00,Rainwise IP-100,2013-10-29 11:59:00,
2013-10-29 08:00:00,42.8,35.0,30.25,NNE,22,10.7,17.0,72,0.00,,,0.00,Rainwise IP-100,2013-10-29 12:00:00,
2013-10-29 08:01:00,42.8,35.0,30.25,NNE,22,10.5,17.0,72,0.00,,,0.00,Rainwise IP-100,2013-10-29 12:01:00,
2013-10-29 08:02:00,42.8,35.0,30.25,NE,45,14.7,17.0,72,0.00,,,0.00,Rainwise IP-100,2013-10-29 12:02:00,
2013-10-29 08:03:00,42.8,35.0,30.26,NE,45,9.6,17.0,72,0.00,,,0.00,Rainwise IP-100,2013-10-29 12:03:00,
2013-10-29 08:04:00,42.8,35.0,30.25,NNE,22,10.7,16.0,72,0.00,,,0.00,Rainwise IP-100,2013-10-29 12:04:00,
2013-10-29 08:05:00,42.8,35.0,30.25,NNE,22,10.7,14.0,72,0.00,,,0.00,Rainwise IP-100,2013-10-29 12:05:00,
2013-10-29 08:06:00,42.8,35.0,30.26,NNE,22,8.9,14.0,72,0.00,,,0.00,Rainwise IP-100,2013-10-29 12:06:00,
2013-10-29 08:07:00,42.8,35.0,30.26,NNE,22,14.9,14.9,72,0.00,,,0.00,Rainwise IP-100,2013-10-29 12:07:00,
2013-10-29 08:09:00,42.8,35.0,30.25,NNE,22,15.2,15.2,72,0.00,,,0.00,Rainwise IP-100,2013-10-29 12:09:00,
2013-10-29 08:11:00,42.8,35.0,30.26,NNE,22,15.4,16.0,71,0.00,,,0.00,Rainwise IP-100,2013-10-29 12:11:00,
2013-10-29 08:13:00,42.7,35.0,30.25,NNE,22,11.7,16.0,71,0.00,,,0.00,Rainwise IP-100,2013-10-29 12:13:00,
2013-10-29 08:15:00,42.7,35.0,30.26,NNE,22,11.0,16.0,71,0.00,,,0.00,Rainwise IP-100,2013-10-29 12:15:00,
2013-10-29 08:16:00,42.7,35.0,30.26,NNE,22,10.7,15.0,71,0.00,,,0.00,Rainwise IP-100,2013-10-29 12:16:00,
2013-10-29 08:17:00,42.7,35.0,30.26,NNE,22,7.9,14.0,71,0.00,,,0.00,Rainwise IP-100,2013-10-29 12:17:00,
2013-10-29 08:18:00,42.8,35.0,30.25,NE,45,13.3,14.0,71,0.00,,,0.00,Rainwise IP-100,2013-10-29 12:18:00,
2013-10-29 08:21:00,42.8,35.0,30.26,NNE,22,12.1,15.0,71,0.00,,,0.00,Rainwise IP-100,2013-10-29 12:21:00,
2013-10-29 08:22:00,42.8,35.0,30.25,NNE,22,10.7,15.0,71,0.00,,,0.00,Rainwise IP-100,2013-10-29 12:22:00,
2013-10-29 08:23:00,42.9,35.0,30.25,NE,45,8.9,15.0,71,0.00,,,0.00,Rainwise IP-100,2013-10-29 12:23:00,
2013-10-29 08:24:00,42.9,35.0,30.26,NE,45,9.6,15.0,71,0.00,,,0.00,Rainwise IP-100,2013-10-29 12:24:00,
2013-10-29 08:27:00,43.0,35.0,30.26,NE,45,6.3,14.0,71,0.00,,,0.00,Rainwise IP-100,2013-10-29 12:27:00,
2013-10-29 08:28:00,43.0,35.0,30.26,NE,45,8.6,13.0,71,0.00,,,0.00,Rainwise IP-100,2013-10-29 12:28:00,
2013-10-29 08:29:00,43.1,35.0,30.25,NNE,22,10.5,13.0,71,0.00,,,0.00,Rainwise IP-100,2013-10-29 12:29:00,
2013-10-29 08:32:00,43.1,35.0,30.26,NE,45,12.6,15.0,71,0.00,,,0.00,Rainwise IP-100,2013-10-29 12:32:00,
2013-10-29 08:33:00,43.1,35.0,30.26,NE,45,11.7,15.0,71,0.00,,,0.00,Rainwise IP-100,2013-10-29 12:33:00,
2013-10-29 08:34:00,43.2,35.0,30.26,NNE,22,13.1,15.0,71,0.00,,,0.00,Rainwise IP-100,2013-10-29 12:34:00,
2013-10-29 08:37:00,43.2,35.0,30.26,NNE,22,15.4,15.4,71,0.00,,,0.00,Rainwise IP-100,2013-10-29 12:37:00,
2013-10-29 08:38:00,43.2,35.0,30.26,NNE,22,13.3,15.0,71,0.00,,,0.00,Rainwise IP-100,2013-10-29 12:38:00,
2013-10-29 08:41:00,43.3,35.0,30.26,NNE,22,11.4,15.0,71,0.00,,,0.00,Rainwise IP-100,2013-10-29 12:41:00,
2013-10-29 08:42:00,43.3,35.0,30.26,NNE,22,6.1,15.0,71,0.00,,,0.00,Rainwise IP-100,2013-10-29 12:42:00,
2013-10-29 08:43:00,43.4,35.0,30.26,NNE,22,11.4,14.0,72,0.00,,,0.00,Rainwise IP-100,2013-10-29 12:43:00,
2013-10-29 08:44:00,43.4,35.0,30.26,NNE,22,9.3,14.0,72,0.00,,,0.00,Rainwise IP-100,2013-10-29 12:44:00,
2013-10-29 08:46:00,43.5,36.0,30.27,NNE,22,11.9,13.0,72,0.00,,,0.00,Rainwise IP-100,2013-10-29 12:46:00,
2013-10-29 08:47:00,43.5,36.0,30.26,NNE,22,12.8,13.0,72,0.00,,,0.00,Rainwise IP-100,2013-10-29 12:47:00,
2013-10-29 08:49:00,43.5,36.0,30.27,NNE,22,12.8,14.0,72,0.00,,,0.00,Rainwise IP-100,2013-10-29 12:49:00,
2013-10-29 08:50:00,43.6,36.0,30.27,North,360,9.3,15.0,72,0.00,,,0.00,Rainwise IP-100,2013-10-29 12:50:00,
2013-10-29 08:52:00,43.7,36.0,30.27,NE,45,12.1,15.0,72,0.00,,,0.00,Rainwise IP-100,2013-10-29 12:52:00,
2013-10-29 08:53:00,43.7,36.0,30.27,NNE,22,13.1,15.0,72,0.00,,,0.00,Rainwise IP-100,2013-10-29 12:53:00,
2013-10-29 08:54:00,43.7,36.0,30.27,NNE,22,7.5,15.0,72,0.00,,,0.00,Rainwise IP-100,2013-10-29 12:54:00,
2013-10-29 08:55:00,43.7,36.0,30.27,NNE,22,12.6,14.0,72,0.00,,,0.00,Rainwise IP-100,2013-10-29 12:55:00,
2013-10-29 08:58:00,43.7,36.0,30.27,NNE,22,11.7,16.0,72,0.00,,,0.00,Rainwise IP-100,2013-10-29 12:58:00,
2013-10-29 08:59:00,43.7,36.0,30.27,NNE,22,12.8,16.0,72,0.00,,,0.00,Rainwise IP-100,2013-10-29 12:59:00,
2013-10-29 09:00:00,43.7,36.0,30.27,NNE,22,11.2,16.0,72,0.00,,,0.00,Rainwise IP-100,2013-10-29 13:00:00,
2013-10-29 09:03:00,43.7,36.0,30.27,NNE,22,10.7,14.0,72,0.00,,,0.00,Rainwise IP-100,2013-10-29 13:03:00,
2013-10-29 09:04:00,43.7,36.0,30.26,NNE,22,11.4,14.0,72,0.00,,,0.00,Rainwise IP-100,2013-10-29 13:04:00,
2013-10-29 09:05:00,43.6,36.0,30.27,NNE,22,10.0,14.0,72,0.00,,,0.00,Rainwise IP-100,2013-10-29 13:05:00,
2013-10-29 09:08:00,43.6,36.0,30.27,NNE,22,9.8,14.0,72,0.00,,,0.00,Rainwise IP-100,2013-10-29 13:08:00,
2013-10-29 09:09:00,43.6,36.0,30.27,NNE,22,9.6,14.0,72,0.00,,,0.00,Rainwise IP-100,2013-10-29 13:09:00,
2013-10-29 09:10:00,43.6,36.0,30.27,NNE,22,11.9,14.0,72,0.00,,,0.00,Rainwise IP-100,2013-10-29 13:10:00,
2013-10-29 09:11:00,43.5,36.0,30.27,NNE,22,14.2,15.0,72,0.00,,,0.00,Rainwise IP-100,2013-10-29 13:11:00,
2013-10-29 09:14:00,43.4,35.0,30.26,NNE,22,13.1,16.0,71,0.00,,,0.00,Rainwise IP-100,2013-10-29 13:14:00,
2013-10-29 09:15:00,43.3,35.0,30.27,North,360,10.0,16.0,71,0.00,,,0.00,Rainwise IP-100,2013-10-29 13:15:00,
2013-10-29 09:16:00,43.3,35.0,30.27,NNE,22,11.4,16.0,71,0.00,,,0.00,Rainwise IP-100,2013-10-29 13:16:00,
2013-10-29 09:17:00,43.2,35.0,30.27,NNE,22,8.6,14.0,71,0.00,,,0.00,Rainwise IP-100,2013-10-29 13:17:00,
2013-10-29 09:19:00,43.2,35.0,30.27,NNE,22,14.5,14.5,71,0.00,,,0.00,Rainwise IP-100,2013-10-29 13:19:00,
2013-10-29 09:20:00,43.2,35.0,30.27,NE,45,11.9,15.0,71,0.00,,,0.00,Rainwise IP-100,2013-10-29 13:20:00,
2013-10-29 09:21:00,43.2,35.0,30.27,NNE,22,8.9,15.0,71,0.00,,,0.00,Rainwise IP-100,2013-10-29 13:21:00,
2013-10-29 09:22:00,43.2,35.0,30.27,NNE,22,11.2,15.0,71,0.00,,,0.00,Rainwise IP-100,2013-10-29 13:22:00,
2013-10-29 09:23:00,43.2,35.0,30.27,NNE,22,9.8,15.0,71,0.00,,,0.00,Rainwise IP-100,2013-10-29 13:23:00,
2013-10-29 09:25:00,43.3,35.0,30.27,NNE,22,10.7,15.0,71,0.00,,,0.00,Rainwise IP-100,2013-10-29 13:25:00,
2013-10-29 09:26:00,43.3,35.0,30.27,NNE,22,11.0,15.0,70,0.00,,,0.00,Rainwise IP-100,2013-10-29 13:26:00,
2013-10-29 09:27:00,43.3,35.0,30.27,NE,45,10.3,15.0,70,0.00,,,0.00,Rainwise IP-100,2013-10-29 13:27:00,
2013-10-29 09:28:00,43.5,35.0,30.27,NNE,22,9.6,15.0,70,0.00,,,0.00,Rainwise IP-100,2013-10-29 13:28:00,
2013-10-29 09:30:00,43.7,35.0,30.28,NE,45,10.5,15.0,70,0.00,,,0.00,Rainwise IP-100,2013-10-29 13:30:00,
2013-10-29 09:31:00,43.8,35.0,30.27,NNE,22,13.8,15.0,70,0.00,,,0.00,Rainwise IP-100,2013-10-29 13:31:00,
2013-10-29 09:33:00,44.0,35.0,30.27,NNE,22,12.8,14.0,69,0.00,,,0.00,Rainwise IP-100,2013-10-29 13:33:00,
2013-10-29 09:35:00,44.1,35.0,30.27,NE,45,14.2,15.0,69,0.00,,,0.00,Rainwise IP-100,2013-10-29 13:35:00,
2013-10-29 09:36:00,44.1,35.0,30.27,NE,45,11.4,15.0,69,0.00,,,0.00,Rainwise IP-100,2013-10-29 13:36:00,
2013-10-29 09:39:00,44.2,35.0,30.27,NNE,22,12.8,15.0,68,0.00,,,0.00,Rainwise IP-100,2013-10-29 13:39:00,
2013-10-29 09:41:00,44.2,35.0,30.27,NNE,22,11.2,15.0,68,0.00,,,0.00,Rainwise IP-100,2013-10-29 13:41:00,
2013-10-29 09:43:00,44.3,35.0,30.27,NNE,22,15.6,15.6,68,0.00,,,0.00,Rainwise IP-100,2013-10-29 13:43:00,
2013-10-29 09:45:00,44.3,35.0,30.27,NNE,22,11.9,16.0,68,0.00,,,0.00,Rainwise IP-100,2013-10-29 13:45:00,
2013-10-29 09:46:00,44.3,35.0,30.27,NNE,22,13.1,17.0,68,0.00,,,0.00,Rainwise IP-100,2013-10-29 13:46:00,
2013-10-29 09:47:00,44.3,33.0,30.27,NE,45,13.8,17.0,67,0.00,,,0.00,Rainwise IP-100,2013-10-29 13:47:00,
2013-10-29 09:48:00,44.3,33.0,30.27,NNE,22,9.6,17.0,67,0.00,,,0.00,Rainwise IP-100,2013-10-29 13:48:00,
2013-10-29 09:50:00,44.4,33.0,30.27,NE,45,6.1,17.0,67,0.00,,,0.00,Rainwise IP-100,2013-10-29 13:50:00,
2013-10-29 09:51:00,44.3,33.0,30.27,NNE,22,14.9,14.9,67,0.00,,,0.00,Rainwise IP-100,2013-10-29 13:51:00,
2013-10-29 09:52:00,44.3,33.0,30.27,NNE,22,13.5,14.0,67,0.00,,,0.00,Rainwise IP-100,2013-10-29 13:52:00,
2013-10-29 09:53:00,44.3,35.0,30.27,NNE,22,9.3,14.0,68,0.00,,,0.00,Rainwise IP-100,2013-10-29 13:53:00,
2013-10-29 09:54:00,44.3,35.0,30.27,NNE,22,14.0,16.0,68,0.00,,,0.00,Rainwise IP-100,2013-10-29 13:54:00,
2013-10-29 09:56:00,44.2,35.0,30.27,NE,45,10.3,16.0,68,0.00,,,0.00,Rainwise IP-100,2013-10-29 13:56:00,
2013-10-29 09:57:00,44.1,35.0,30.27,NE,45,14.5,16.0,68,0.00,,,0.00,Rainwise IP-100,2013-10-29 13:57:00,
2013-10-29 09:58:00,44.1,35.0,30.27,NE,45,14.5,16.0,68,0.00,,,0.00,Rainwise IP-100,2013-10-29 13:58:00,
2013-10-29 09:59:00,44.1,35.0,30.27,NNE,22,14.5,16.0,68,0.00,,,0.00,Rainwise IP-100,2013-10-29 13:59:00,
2013-10-29 10:01:00,44.1,35.0,30.27,NNE,22,14.9,15.0,68,0.00,,,0.00,Rainwise IP-100,2013-10-29 14:01:00,
2013-10-29 10:02:00,44.0,35.0,30.26,NNE,22,15.9,17.0,68,0.00,,,0.00,Rainwise IP-100,2013-10-29 14:02:00,
2013-10-29 10:04:00,44.0,35.0,30.27,NNE,22,12.6,17.0,68,0.00,,,0.00,Rainwise IP-100,2013-10-29 14:04:00,
2013-10-29 10:06:00,44.0,35.0,30.27,NNE,22,14.0,17.0,68,0.00,,,0.00,Rainwise IP-100,2013-10-29 14:06:00,
2013-10-29 10:07:00,44.0,35.0,30.27,NNE,22,15.9,17.0,69,0.00,,,0.00,Rainwise IP-100,2013-10-29 14:07:00,
2013-10-29 10:09:00,44.0,35.0,30.27,NNE,22,13.3,18.0,69,0.00,,,0.00,Rainwise IP-100,2013-10-29 14:09:00,
2013-10-29 10:10:00,44.0,35.0,30.27,NE,45,9.8,18.0,69,0.00,,,0.00,Rainwise IP-100,2013-10-29 14:10:00,
2013-10-29 10:11:00,44.0,35.0,30.26,NNE,22,8.9,18.0,69,0.00,,,0.00,Rainwise IP-100,2013-10-29 14:11:00,
2013-10-29 10:12:00,44.0,35.0,30.26,NNE,22,14.7,18.0,69,0.00,,,0.00,Rainwise IP-100,2013-10-29 14:12:00,
2013-10-29 10:14:00,44.1,35.0,30.26,NNE,22,14.9,16.0,69,0.00,,,0.00,Rainwise IP-100,2013-10-29 14:14:00,
2013-10-29 10:15:00,44.1,35.0,30.26,NNE,22,14.0,16.0,69,0.00,,,0.00,Rainwise IP-100,2013-10-29 14:15:00,
2013-10-29 10:16:00,44.1,35.0,30.26,NNE,22,15.6,16.0,68,0.00,,,0.00,Rainwise IP-100,2013-10-29 14:16:00,
2013-10-29 10:17:00,44.1,35.0,30.26,NE,45,14.0,16.0,68,0.00,,,0.00,Rainwise IP-100,2013-10-29 14:17:00,
2013-10-29 10:18:00,44.2,35.0,30.27,NNE,22,10.5,16.0,68,0.00,,,0.00,Rainwise IP-100,2013-10-29 14:18:00,
2013-10-29 10:20:00,44.3,35.0,30.27,NE,45,9.8,15.0,68,0.00,,,0.00,Rainwise IP-100,2013-10-29 14:20:00,
2013-10-29 10:21:00,44.4,35.0,30.27,NE,45,11.2,15.0,68,0.00,,,0.00,Rainwise IP-100,2013-10-29 14:21:00,
2013-10-29 10:22:00,44.5,35.0,30.26,NNE,22,13.3,15.0,67,0.00,,,0.00,Rainwise IP-100,2013-10-29 14:22:00,
2013-10-29 10:23:00,44.5,35.0,30.26,NNE,22,11.4,15.0,67,0.00,,,0.00,Rainwise IP-100,2013-10-29 14:23:00,
2013-10-29 10:24:00,44.5,35.0,30.27,NNE,22,11.0,15.0,67,0.00,,,0.00,Rainwise IP-100,2013-10-29 14:24:00,
2013-10-29 10:26:00,44.7,35.0,30.27,NNE,22,10.3,14.0,67,0.00,,,0.00,Rainwise IP-100,2013-10-29 14:26:00,
2013-10-29 10:27:00,44.9,35.0,30.27,NNE,22,12.4,14.0,67,0.00,,,0.00,Rainwise IP-100,2013-10-29 14:27:00,
2013-10-29 10:29:00,45.0,35.0,30.26,NNE,22,14.2,14.2,67,0.00,,,0.00,Rainwise IP-100,2013-10-29 14:29:00,
2013-10-29 10:31:00,45.0,35.0,30.27,NE,45,11.4,15.0,67,0.00,,,0.00,Rainwise IP-100,2013-10-29 14:31:00,
2013-10-29 10:32:00,45.0,35.0,30.27,NE,45,15.4,15.4,67,0.00,,,0.00,Rainwise IP-100,2013-10-29 14:32:00,
2013-10-29 10:33:00,45.0,35.0,30.27,NE,45,13.5,16.0,67,0.00,,,0.00,Rainwise IP-100,2013-10-29 14:33:00,
2013-10-29 10:34:00,45.0,35.0,30.27,North,360,8.6,16.0,67,0.00,,,0.00,Rainwise IP-100,2013-10-29 14:34:00,
2013-10-29 10:36:00,45.0,35.0,30.27,NNE,22,11.2,16.0,67,0.00,,,0.00,Rainwise IP-100,2013-10-29 14:36:00,
2013-10-29 10:37:00,44.9,35.0,30.27,NNE,22,14.9,16.0,66,0.00,,,0.00,Rainwise IP-100,2013-10-29 14:37:00,
2013-10-29 10:38:00,44.9,35.0,30.27,NNE,22,12.8,16.0,66,0.00,,,0.00,Rainwise IP-100,2013-10-29 14:38:00,
2013-10-29 10:40:00,45.0,35.0,30.27,North,360,9.8,16.0,66,0.00,,,0.00,Rainwise IP-100,2013-10-29 14:40:00,
2013-10-29 10:41:00,45.0,35.0,30.27,NNE,22,10.7,16.0,66,0.00,,,0.00,Rainwise IP-100,2013-10-29 14:41:00,
2013-10-29 10:42:00,45.1,35.0,30.27,NNE,22,11.4,16.0,66,0.00,,,0.00,Rainwise IP-100,2013-10-29 14:42:00,
2013-10-29 10:43:00,45.1,35.0,30.27,NNE,22,16.3,17.0,66,0.00,,,0.00,Rainwise IP-100,2013-10-29 14:43:00,
2013-10-29 10:46:00,45.2,35.0,30.27,NE,45,13.1,17.0,66,0.00,,,0.00,Rainwise IP-100,2013-10-29 14:46:00,
2013-10-29 10:47:00,45.2,35.0,30.27,NNE,22,15.6,17.0,66,0.00,,,0.00,Rainwise IP-100,2013-10-29 14:47:00,
2013-10-29 10:48:00,45.2,35.0,30.27,NNE,22,15.6,17.0,66,0.00,,,0.00,Rainwise IP-100,2013-10-29 14:48:00,
2013-10-29 10:50:00,45.2,35.0,30.27,NNE,22,14.9,18.0,66,0.00,,,0.00,Rainwise IP-100,2013-10-29 14:50:00,
2013-10-29 10:52:00,45.0,35.0,30.27,NNE,22,15.9,18.0,65,0.00,,,0.00,Rainwise IP-100,2013-10-29 14:52:00,
2013-10-29 10:53:00,45.0,35.0,30.27,NNE,22,15.6,18.0,65,0.00,,,0.00,Rainwise IP-100,2013-10-29 14:53:00,
2013-10-29 10:55:00,45.2,35.0,30.27,NE,45,7.2,17.0,65,0.00,,,0.00,Rainwise IP-100,2013-10-29 14:55:00,
2013-10-29 10:58:00,45.5,35.0,30.27,North,360,10.0,17.0,65,0.00,,,0.00,Rainwise IP-100,2013-10-29 14:58:00,
2013-10-29 10:59:00,45.5,35.0,30.27,NNE,22,9.8,17.0,65,0.00,,,0.00,Rainwise IP-100,2013-10-29 14:59:00,
2013-10-29 11:01:00,45.7,35.0,30.27,NNE,22,9.1,14.0,65,0.00,,,0.00,Rainwise IP-100,2013-10-29 15:01:00,
2013-10-29 11:03:00,45.9,35.0,30.27,NE,45,10.5,13.0,64,0.00,,,0.00,Rainwise IP-100,2013-10-29 15:03:00,
2013-10-29 11:04:00,45.9,35.0,30.27,NNE,22,8.9,13.0,64,0.00,,,0.00,Rainwise IP-100,2013-10-29 15:04:00,
2013-10-29 11:06:00,46.0,35.0,30.27,NE,45,10.5,14.0,64,0.00,,,0.00,Rainwise IP-100,2013-10-29 15:06:00,
2013-10-29 11:08:00,45.9,35.0,30.27,North,360,7.9,14.0,64,0.00,,,0.00,Rainwise IP-100,2013-10-29 15:08:00,
2013-10-29 11:09:00,45.9,35.0,30.27,NNE,22,12.4,14.0,64,0.00,,,0.00,Rainwise IP-100,2013-10-29 15:09:00,
2013-10-29 11:10:00,45.9,35.0,30.27,North,360,10.3,14.0,64,0.00,,,0.00,Rainwise IP-100,2013-10-29 15:10:00,
2013-10-29 11:13:00,46.0,35.0,30.27,NE,45,10.0,14.0,64,0.00,,,0.00,Rainwise IP-100,2013-10-29 15:13:00,
2013-10-29 11:14:00,46.0,35.0,30.27,NNE,22,12.4,14.0,64,0.00,,,0.00,Rainwise IP-100,2013-10-29 15:14:00,
2013-10-29 11:15:00,45.9,35.0,30.27,NNE,22,11.2,14.0,64,0.00,,,0.00,Rainwise IP-100,2013-10-29 15:15:00,
2013-10-29 11:18:00,46.0,35.0,30.26,NNE,22,10.7,15.0,64,0.00,,,0.00,Rainwise IP-100,2013-10-29 15:18:00,
2013-10-29 11:19:00,46.1,35.0,30.26,NNE,22,12.8,15.0,64,0.00,,,0.00,Rainwise IP-100,2013-10-29 15:19:00,
2013-10-29 11:20:00,46.1,35.0,30.26,NNE,22,14.0,15.0,64,0.00,,,0.00,Rainwise IP-100,2013-10-29 15:20:00,
2013-10-29 11:24:00,46.3,33.0,30.27,NNE,22,16.3,17.0,62,0.00,,,0.00,Rainwise IP-100,2013-10-29 15:24:00,
2013-10-29 11:25:00,46.3,33.0,30.27,NNE,22,15.2,17.0,62,0.00,,,0.00,Rainwise IP-100,2013-10-29 15:25:00,
2013-10-29 11:26:00,46.4,33.0,30.27,NNE,22,14.5,17.0,62,0.00,,,0.00,Rainwise IP-100,2013-10-29 15:26:00,
2013-10-29 11:29:00,46.6,35.0,30.26,NNE,22,6.8,17.0,62,0.00,,,0.00,Rainwise IP-100,2013-10-29 15:29:00,
2013-10-29 11:30:00,46.7,35.0,30.26,ENE,67,10.0,15.0,62,0.00,,,0.00,Rainwise IP-100,2013-10-29 15:30:00,
2013-10-29 11:31:00,46.8,35.0,30.26,NNE,22,16.3,16.3,62,0.00,,,0.00,Rainwise IP-100,2013-10-29 15:31:00,
2013-10-29 11:32:00,46.8,35.0,30.26,NNE,22,13.5,16.0,61,0.00,,,0.00,Rainwise IP-100,2013-10-29 15:32:00,
2013-10-29 11:34:00,46.8,35.0,30.26,NNE,22,10.0,16.0,61,0.00,,,0.00,Rainwise IP-100,2013-10-29 15:34:00,
2013-10-29 11:35:00,46.8,35.0,30.26,NE,45,11.2,16.0,61,0.00,,,0.00,Rainwise IP-100,2013-10-29 15:35:00,
2013-10-29 11:37:00,47.1,35.0,30.27,NE,45,12.4,16.0,61,0.00,,,0.00,Rainwise IP-100,2013-10-29 15:37:00,
2013-10-29 11:38:00,47.1,35.0,30.27,NE,45,10.7,16.0,61,0.00,,,0.00,Rainwise IP-100,2013-10-29 15:38:00,
2013-10-29 11:39:00,47.1,33.0,30.26,NE,45,10.0,15.0,60,0.00,,,0.00,Rainwise IP-100,2013-10-29 15:39:00,
2013-10-29 11:40:00,47.1,33.0,30.26,NE,45,11.4,15.0,60,0.00,,,0.00,Rainwise IP-100,2013-10-29 15:40:00,
2013-10-29 11:42:00,47.1,33.0,30.26,NNE,22,12.4,15.0,60,0.00,,,0.00,Rainwise IP-100,2013-10-29 15:42:00,
2013-10-29 11:43:00,47.2,33.0,30.26,NE,45,7.9,15.0,59,0.00,,,0.00,Rainwise IP-100,2013-10-29 15:43:00,
2013-10-29 11:44:00,47.3,33.0,30.26,North,360,11.0,14.0,59,0.00,,,0.00,Rainwise IP-100,2013-10-29 15:44:00,
2013-10-29 11:45:00,47.3,33.0,30.26,NNE,22,12.1,14.0,59,0.00,,,0.00,Rainwise IP-100,2013-10-29 15:45:00,
2013-10-29 11:46:00,47.3,33.0,30.26,NNE,22,10.7,14.0,59,0.00,,,0.00,Rainwise IP-100,2013-10-29 15:46:00,
2013-10-29 11:48:00,47.4,33.0,30.26,NNE,22,11.7,14.0,59,0.00,,,0.00,Rainwise IP-100,2013-10-29 15:48:00,
2013-10-29 11:49:00,47.4,33.0,30.26,North,360,10.7,13.0,58,0.00,,,0.00,Rainwise IP-100,2013-10-29 15:49:00,
2013-10-29 11:50:00,47.5,33.0,30.26,NNE,22,11.7,13.0,58,0.00,,,0.00,Rainwise IP-100,2013-10-29 15:50:00,
2013-10-29 11:52:00,47.4,33.0,30.26,North,360,10.5,14.0,57,0.00,,,0.00,Rainwise IP-100,2013-10-29 15:52:00,
2013-10-29 11:53:00,47.4,33.0,30.26,NNE,22,10.7,14.0,57,0.00,,,0.00,Rainwise IP-100,2013-10-29 15:53:00,
2013-10-29 11:54:00,47.4,33.0,30.26,NNE,22,12.1,14.0,57,0.00,,,0.00,Rainwise IP-100,2013-10-29 15:54:00,
2013-10-29 11:55:00,47.4,32.0,30.25,NE,45,11.2,14.0,56,0.00,,,0.00,Rainwise IP-100,2013-10-29 15:55:00,
2013-10-29 11:56:00,47.4,32.0,30.25,NE,45,8.9,14.0,56,0.00,,,0.00,Rainwise IP-100,2013-10-29 15:56:00,
2013-10-29 11:57:00,47.3,32.0,30.26,NNE,22,12.1,14.0,56,0.00,,,0.00,Rainwise IP-100,2013-10-29 15:57:00,
2013-10-29 11:58:00,47.3,32.0,30.26,NNE,22,12.1,14.0,56,0.00,,,0.00,Rainwise IP-100,2013-10-29 15:58:00,
2013-10-29 11:59:00,47.4,32.0,30.26,NNE,22,12.1,14.0,55,0.00,,,0.00,Rainwise IP-100,2013-10-29 15:59:00,
2013-10-29 12:00:00,47.4,32.0,30.26,NE,45,11.7,14.0,55,0.00,,,0.00,Rainwise IP-100,2013-10-29 16:00:00,
2013-10-29 12:01:00,47.6,32.0,30.27,NNE,22,7.5,14.0,55,0.00,,,0.00,Rainwise IP-100,2013-10-29 16:01:00,
2013-10-29 12:03:00,47.7,32.0,30.26,NE,45,11.9,14.0,55,0.00,,,0.00,Rainwise IP-100,2013-10-29 16:03:00,
2013-10-29 12:04:00,47.8,32.0,30.26,ENE,67,8.6,14.0,54,0.00,,,0.00,Rainwise IP-100,2013-10-29 16:04:00,
2013-10-29 12:05:00,47.8,32.0,30.26,North,360,8.2,14.0,54,0.00,,,0.00,Rainwise IP-100,2013-10-29 16:05:00,
2013-10-29 12:07:00,47.6,32.0,30.26,NNE,22,11.7,15.0,54,0.00,,,0.00,Rainwise IP-100,2013-10-29 16:07:00,
2013-10-29 12:08:00,47.5,32.0,30.26,NNE,22,9.1,15.0,54,0.00,,,0.00,Rainwise IP-100,2013-10-29 16:08:00,
2013-10-29 12:09:00,47.5,32.0,30.26,NNE,22,12.4,15.0,54,0.00,,,0.00,Rainwise IP-100,2013-10-29 16:09:00,
2013-10-29 12:10:00,47.7,32.0,30.26,NNE,22,7.7,15.0,54,0.00,,,0.00,Rainwise IP-100,2013-10-29 16:10:00,
2013-10-29 12:11:00,47.8,32.0,30.26,NE,45,8.2,14.0,54,0.00,,,0.00,Rainwise IP-100,2013-10-29 16:11:00,
2013-10-29 12:13:00,47.8,32.0,30.25,NNE,22,12.1,14.0,54,0.00,,,0.00,Rainwise IP-100,2013-10-29 16:13:00,
2013-10-29 12:14:00,47.8,32.0,30.25,NE,45,11.9,15.0,54,0.00,,,0.00,Rainwise IP-100,2013-10-29 16:14:00,
2013-10-29 12:15:00,47.8,31.0,30.25,NNE,22,10.5,15.0,53,0.00,,,0.00,Rainwise IP-100,2013-10-29 16:15:00,
2013-10-29 12:16:00,47.8,31.0,30.25,NNE,22,7.7,15.0,53,0.00,,,0.00,Rainwise IP-100,2013-10-29 16:16:00,
2013-10-29 12:19:00,47.9,32.0,30.25,NE,45,11.0,15.0,53,0.00,,,0.00,Rainwise IP-100,2013-10-29 16:19:00,
2013-10-29 12:20:00,47.8,31.0,30.25,NE,45,9.1,15.0,52,0.00,,,0.00,Rainwise IP-100,2013-10-29 16:20:00,
2013-10-29 12:21:00,47.8,31.0,30.25,NNE,22,11.0,15.0,52,0.00,,,0.00,Rainwise IP-100,2013-10-29 16:21:00,
2013-10-29 12:22:00,47.8,31.0,30.25,NNE,22,10.5,15.0,52,0.00,,,0.00,Rainwise IP-100,2013-10-29 16:22:00,
2013-10-29 12:24:00,47.7,31.0,30.25,NNE,22,11.4,13.0,52,0.00,,,0.00,Rainwise IP-100,2013-10-29 16:24:00,
2013-10-29 12:25:00,47.7,31.0,30.25,NNE,22,9.6,13.0,51,0.00,,,0.00,Rainwise IP-100,2013-10-29 16:25:00,
2013-10-29 12:27:00,47.8,31.0,30.25,NE,45,11.0,13.0,51,0.00,,,0.00,Rainwise IP-100,2013-10-29 16:27:00,
2013-10-29 12:29:00,48.0,31.0,30.24,ENE,67,9.1,12.0,51,0.00,,,0.00,Rainwise IP-100,2013-10-29 16:29:00,
2013-10-29 12:30:00,48.0,31.0,30.25,NE,45,8.9,12.0,51,0.00,,,0.00,Rainwise IP-100,2013-10-29 16:30:00,
2013-10-29 12:31:00,48.0,31.0,30.25,ENE,67,7.9,12.0,51,0.00,,,0.00,Rainwise IP-100,2013-10-29 16:31:00,
2013-10-29 12:32:00,47.9,31.0,30.25,ENE,67,8.6,12.0,51,0.00,,,0.00,Rainwise IP-100,2013-10-29 16:32:00,
2013-10-29 12:35:00,48.1,31.0,30.24,NE,45,10.7,11.0,51,0.00,,,0.00,Rainwise IP-100,2013-10-29 16:35:00,
2013-10-29 12:36:00,48.0,31.0,30.24,NE,45,7.5,11.0,51,0.00,,,0.00,Rainwise IP-100,2013-10-29 16:36:00,
2013-10-29 12:37:00,47.9,31.0,30.24,NNE,22,8.9,11.0,51,0.00,,,0.00,Rainwise IP-100,2013-10-29 16:37:00,
2013-10-29 12:38:00,47.9,31.0,30.24,NE,45,3.7,11.0,51,0.00,,,0.00,Rainwise IP-100,2013-10-29 16:38:00,
2013-10-29 12:40:00,47.9,31.0,30.24,NNE,22,12.8,12.8,51,0.00,,,0.00,Rainwise IP-100,2013-10-29 16:40:00,
2013-10-29 12:41:00,47.9,31.0,30.24,NNE,22,7.5,12.0,51,0.00,,,0.00,Rainwise IP-100,2013-10-29 16:41:00,
2013-10-29 12:42:00,47.8,31.0,30.25,North,360,9.1,12.0,51,0.00,,,0.00,Rainwise IP-100,2013-10-29 16:42:00,
2013-10-29 12:43:00,47.8,31.0,30.24,NE,45,8.4,12.0,51,0.00,,,0.00,Rainwise IP-100,2013-10-29 16:43:00,
2013-10-29 12:45:00,47.9,31.0,30.24,NNE,22,9.1,12.0,50,0.00,,,0.00,Rainwise IP-100,2013-10-29 16:45:00,
2013-10-29 12:47:00,48.0,31.0,30.24,NNE,22,9.3,13.0,50,0.00,,,0.00,Rainwise IP-100,2013-10-29 16:47:00,
2013-10-29 12:48:00,48.0,31.0,30.24,NE,45,9.3,13.0,50,0.00,,,0.00,Rainwise IP-100,2013-10-29 16:48:00,
2013-10-29 12:51:00,48.1,31.0,30.24,NNE,22,9.1,13.0,50,0.00,,,0.00,Rainwise IP-100,2013-10-29 16:51:00,
2013-10-29 12:52:00,48.2,31.0,30.24,ENE,67,9.8,11.0,50,0.00,,,0.00,Rainwise IP-100,2013-10-29 16:52:00,
2013-10-29 12:54:00,48.3,31.0,30.25,ENE,67,8.6,11.0,50,0.00,,,0.00,Rainwise IP-100,2013-10-29 16:54:00,
2013-10-29 12:55:00,48.3,31.0,30.24,NE,45,10.3,11.0,50,0.00,,,0.00,Rainwise IP-100,2013-10-29 16:55:00,
2013-10-29 12:57:00,48.3,31.0,30.24,ENE,67,5.1,12.0,50,0.00,,,0.00,Rainwise IP-100,2013-10-29 16:57:00,
2013-10-29 12:58:00,48.3,31.0,30.24,ENE,67,10.3,12.0,50,0.00,,,0.00,Rainwise IP-100,2013-10-29 16:58:00,
2013-10-29 12:59:00,48.4,31.0,30.24,NE,45,9.1,12.0,50,0.00,,,0.00,Rainwise IP-100,2013-10-29 16:59:00,
2013-10-29 13:00:00,48.4,31.0,30.24,ENE,67,8.6,12.0,50,0.00,,,0.00,Rainwise IP-100,2013-10-29 17:00:00,
2013-10-29 13:01:00,48.4,31.0,30.24,ENE,67,7.2,12.0,49,0.00,,,0.00,Rainwise IP-100,2013-10-29 17:01:00,
2013-10-29 13:02:00,48.3,31.0,30.24,NNE,22,8.2,12.0,49,0.00,,,0.00,Rainwise IP-100,2013-10-29 17:02:00,
2013-10-29 13:03:00,48.3,31.0,30.24,NNE,22,7.2,12.0,49,0.00,,,0.00,Rainwise IP-100,2013-10-29 17:03:00,
2013-10-29 13:04:00,48.2,31.0,30.24,ENE,67,9.3,13.0,49,0.00,,,0.00,Rainwise IP-100,2013-10-29 17:04:00,
2013-10-29 13:05:00,48.3,31.0,30.24,NNE,22,6.3,13.0,49,0.00,,,0.00,Rainwise IP-100,2013-10-29 17:05:00,
2013-10-29 13:06:00,48.4,31.0,30.24,NNE,22,10.5,13.0,49,0.00,,,0.00,Rainwise IP-100,2013-10-29 17:06:00,
2013-10-29 13:08:00,48.3,31.0,30.24,NE,45,7.9,13.0,49,0.00,,,0.00,Rainwise IP-100,2013-10-29 17:08:00,
2013-10-29 13:09:00,48.4,31.0,30.24,ENE,67,7.7,11.0,49,0.00,,,0.00,Rainwise IP-100,2013-10-29 17:09:00,
2013-10-29 13:10:00,48.3,31.0,30.24,NNE,22,14.0,14.0,49,0.00,,,0.00,Rainwise IP-100,2013-10-29 17:10:00,
2013-10-29 13:11:00,48.3,31.0,30.24,North,360,8.4,15.0,49,0.00,,,0.00,Rainwise IP-100,2013-10-29 17:11:00,
2013-10-29 13:12:00,48.3,31.0,30.24,NNE,22,12.4,15.0,49,0.00,,,0.00,Rainwise IP-100,2013-10-29 17:12:00,
2013-10-29 13:13:00,48.3,31.0,30.24,NNE,22,9.3,15.0,50,0.00,,,0.00,Rainwise IP-100,2013-10-29 17:13:00,
2013-10-29 13:16:00,48.2,31.0,30.24,NE,45,10.5,12.0,51,0.00,,,0.00,Rainwise IP-100,2013-10-29 17:16:00,
2013-10-29 13:17:00,48.1,31.0,30.24,ENE,67,10.0,12.0,51,0.00,,,0.00,Rainwise IP-100,2013-10-29 17:17:00,
2013-10-29 13:18:00,48.3,31.0,30.24,NNE,22,9.6,12.0,51,0.00,,,0.00,Rainwise IP-100,2013-10-29 17:18:00,
2013-10-29 13:19:00,48.3,31.0,30.24,NNE,22,9.1,11.0,51,0.00,,,0.00,Rainwise IP-100,2013-10-29 17:19:00,
2013-10-29 13:21:00,48.4,31.0,30.24,NE,45,8.2,11.0,51,0.00,,,0.00,Rainwise IP-100,2013-10-29 17:21:00,
2013-10-29 13:22:00,48.4,31.0,30.24,NE,45,11.2,11.2,51,0.00,,,0.00,Rainwise IP-100,2013-10-29 17:22:00,
2013-10-29 13:23:00,48.5,32.0,30.24,NNE,22,10.0,12.0,51,0.00,,,0.00,Rainwise IP-100,2013-10-29 17:23:00,
2013-10-29 13:24:00,48.5,32.0,30.24,NNE,22,8.4,12.0,51,0.00,,,0.00,Rainwise IP-100,2013-10-29 17:24:00,
2013-10-29 13:26:00,48.4,31.0,30.24,NE,45,8.6,12.0,51,0.00,,,0.00,Rainwise IP-100,2013-10-29 17:26:00,
2013-10-29 13:27:00,48.4,31.0,30.24,ENE,67,6.5,12.0,51,0.00,,,0.00,Rainwise IP-100,2013-10-29 17:27:00,
2013-10-29 13:29:00,48.3,32.0,30.24,NNE,22,6.3,12.0,52,0.00,,,0.00,Rainwise IP-100,2013-10-29 17:29:00,
2013-10-29 13:30:00,48.3,32.0,30.24,North,360,3.7,12.0,52,0.00,,,0.00,Rainwise IP-100,2013-10-29 17:30:00,
2013-10-29 13:32:00,48.2,32.0,30.24,North,360,10.0,13.0,52,0.00,,,0.00,Rainwise IP-100,2013-10-29 17:32:00,
2013-10-29 13:33:00,48.2,32.0,30.24,NNE,22,10.0,13.0,52,0.00,,,0.00,Rainwise IP-100,2013-10-29 17:33:00,
2013-10-29 13:34:00,48.1,32.0,30.24,NNW,337,6.1,13.0,53,0.00,,,0.00,Rainwise IP-100,2013-10-29 17:34:00,
2013-10-29 13:35:00,48.1,32.0,30.24,NNE,22,4.9,13.0,53,0.00,,,0.00,Rainwise IP-100,2013-10-29 17:35:00,
2013-10-29 13:37:00,48.2,32.0,30.24,NE,45,6.3,12.0,53,0.00,,,0.00,Rainwise IP-100,2013-10-29 17:37:00,
2013-10-29 13:38:00,48.2,32.0,30.24,North,360,5.8,12.0,53,0.00,,,0.00,Rainwise IP-100,2013-10-29 17:38:00,
2013-10-29 13:39:00,48.2,32.0,30.24,North,360,5.4,12.0,53,0.00,,,0.00,Rainwise IP-100,2013-10-29 17:39:00,
2013-10-29 13:40:00,48.2,32.0,30.24,North,360,10.3,12.0,53,0.00,,,0.00,Rainwise IP-100,2013-10-29 17:40:00,
2013-10-29 13:41:00,48.2,32.0,30.24,NNE,22,10.7,11.0,53,0.00,,,0.00,Rainwise IP-100,2013-10-29 17:41:00,
2013-10-29 13:42:00,48.1,32.0,30.24,NNE,22,8.6,11.0,53,0.00,,,0.00,Rainwise IP-100,2013-10-29 17:42:00,
2013-10-29 13:43:00,48.2,32.0,30.24,NNE,22,5.8,11.0,53,0.00,,,0.00,Rainwise IP-100,2013-10-29 17:43:00,
2013-10-29 13:45:00,48.3,32.0,30.24,NE,45,8.6,13.0,53,0.00,,,0.00,Rainwise IP-100,2013-10-29 17:45:00,
2013-10-29 13:46:00,48.3,32.0,30.24,NNE,22,9.6,13.0,53,0.00,,,0.00,Rainwise IP-100,2013-10-29 17:46:00,
2013-10-29 13:48:00,48.4,32.0,30.24,NNE,22,10.5,13.0,53,0.00,,,0.00,Rainwise IP-100,2013-10-29 17:48:00,
2013-10-29 13:51:00,48.4,32.0,30.24,NNE,22,8.4,11.0,53,0.00,,,0.00,Rainwise IP-100,2013-10-29 17:51:00,
2013-10-29 13:52:00,48.4,32.0,30.24,ENE,67,5.4,11.0,53,0.00,,,0.00,Rainwise IP-100,2013-10-29 17:52:00,
2013-10-29 13:53:00,48.5,33.0,30.24,ENE,67,2.6,11.0,53,0.00,,,0.00,Rainwise IP-100,2013-10-29 17:53:00,
2013-10-29 13:56:00,48.6,33.0,30.24,North,360,8.2,10.0,53,0.00,,,0.00,Rainwise IP-100,2013-10-29 17:56:00,
2013-10-29 13:57:00,48.6,32.0,30.24,NNE,22,8.6,11.0,52,0.00,,,0.00,Rainwise IP-100,2013-10-29 17:57:00,
2013-10-29 13:58:00,48.6,32.0,30.24,NE,45,4.7,12.0,52,0.00,,,0.00,Rainwise IP-100,2013-10-29 17:58:00,
2013-10-29 13:59:00,48.6,32.0,30.24,NE,45,4.2,12.0,52,0.00,,,0.00,Rainwise IP-100,2013-10-29 17:59:00,
2013-10-29 14:01:00,48.6,32.0,30.24,North,360,6.5,12.0,50,0.00,,,0.00,Rainwise IP-100,2013-10-29 18:01:00,
2013-10-29 14:02:00,48.8,32.0,30.24,North,360,7.0,12.0,50,0.00,,,0.00,Rainwise IP-100,2013-10-29 18:02:00,
2013-10-29 14:03:00,48.9,31.0,30.24,NNE,22,4.0,11.0,49,0.00,,,0.00,Rainwise IP-100,2013-10-29 18:03:00,
2013-10-29 14:05:00,48.9,31.0,30.24,NNE,22,9.1,11.0,48,0.00,,,0.00,Rainwise IP-100,2013-10-29 18:05:00,
2013-10-29 14:06:00,48.8,29.0,30.24,NNE,22,5.8,11.0,47,0.00,,,0.00,Rainwise IP-100,2013-10-29 18:06:00,
2013-10-29 14:07:00,48.9,29.0,30.24,NE,45,5.1,11.0,47,0.00,,,0.00,Rainwise IP-100,2013-10-29 18:07:00,
2013-10-29 14:08:00,49.1,29.0,30.24,NNE,22,2.3,11.0,47,0.00,,,0.00,Rainwise IP-100,2013-10-29 18:08:00,
2013-10-29 14:10:00,49.1,29.0,30.24,NNE,22,10.0,10.0,47,0.00,,,0.00,Rainwise IP-100,2013-10-29 18:10:00,
2013-10-29 14:11:00,49.1,29.0,30.24,NNE,22,10.5,10.5,47,0.00,,,0.00,Rainwise IP-100,2013-10-29 18:11:00,
2013-10-29 14:12:00,49.1,29.0,30.24,NNE,22,9.8,11.0,47,0.00,,,0.00,Rainwise IP-100,2013-10-29 18:12:00,
2013-10-29 14:13:00,48.9,29.0,30.24,North,360,7.7,11.0,47,0.00,,,0.00,Rainwise IP-100,2013-10-29 18:13:00,
2013-10-29 14:15:00,48.9,29.0,30.24,NNW,337,6.8,11.0,47,0.00,,,0.00,Rainwise IP-100,2013-10-29 18:15:00,
2013-10-29 14:16:00,48.9,29.0,30.24,NNW,337,2.6,11.0,47,0.00,,,0.00,Rainwise IP-100,2013-10-29 18:16:00,
2013-10-29 14:17:00,49.0,29.0,30.24,NE,45,10.0,10.0,47,0.00,,,0.00,Rainwise IP-100,2013-10-29 18:17:00,
2013-10-29 14:18:00,49.0,29.0,30.24,NNE,22,10.5,11.0,47,0.00,,,0.00,Rainwise IP-100,2013-10-29 18:18:00,
2013-10-29 14:20:00,48.7,29.0,30.24,North,360,4.9,11.0,47,0.00,,,0.00,Rainwise IP-100,2013-10-29 18:20:00,
2013-10-29 14:22:00,48.7,29.0,30.24,North,360,5.1,11.0,46,0.00,,,0.00,Rainwise IP-100,2013-10-29 18:22:00,
2013-10-29 14:23:00,48.6,29.0,30.24,North,360,2.3,11.0,46,0.00,,,0.00,Rainwise IP-100,2013-10-29 18:23:00,
2013-10-29 14:24:00,48.6,29.0,30.24,North,360,1.9,11.0,46,0.00,,,0.00,Rainwise IP-100,2013-10-29 18:24:00,
2013-10-29 14:26:00,48.7,29.0,30.24,NNE,22,4.2,9.0,46,0.00,,,0.00,Rainwise IP-100,2013-10-29 18:26:00,
2013-10-29 14:28:00,48.8,29.0,30.24,NNW,337,8.4,10.0,46,0.00,,,0.00,Rainwise IP-100,2013-10-29 18:28:00,
2013-10-29 14:29:00,48.8,29.0,30.24,North,360,5.8,10.0,46,0.00,,,0.00,Rainwise IP-100,2013-10-29 18:29:00,
2013-10-29 14:30:00,48.9,29.0,30.24,NNW,337,5.8,10.0,45,0.00,,,0.00,Rainwise IP-100,2013-10-29 18:30:00,
2013-10-29 14:31:00,49.0,29.0,30.24,NNW,337,5.1,10.0,45,0.00,,,0.00,Rainwise IP-100,2013-10-29 18:31:00,
2013-10-29 14:34:00,49.3,29.0,30.24,NNE,22,4.9,8.0,45,0.00,,,0.00,Rainwise IP-100,2013-10-29 18:34:00,
2013-10-29 14:35:00,49.4,29.0,30.24,NE,45,4.0,8.0,45,0.00,,,0.00,Rainwise IP-100,2013-10-29 18:35:00,
2013-10-29 14:37:00,49.7,29.0,30.24,WNW,292,3.7,7.0,44,0.00,,,0.00,Rainwise IP-100,2013-10-29 18:37:00,
2013-10-29 14:39:00,49.7,29.0,30.24,North,360,7.2,9.0,44,0.00,,,0.00,Rainwise IP-100,2013-10-29 18:39:00,
2013-10-29 14:40:00,49.7,29.0,30.24,NNE,22,8.2,9.0,44,0.00,,,0.00,Rainwise IP-100,2013-10-29 18:40:00,
2013-10-29 14:41:00,49.6,29.0,30.24,NNE,22,3.7,9.0,44,0.00,,,0.00,Rainwise IP-100,2013-10-29 18:41:00,
2013-10-29 14:43:00,49.6,29.0,30.24,North,360,6.3,9.0,45,0.00,,,0.00,Rainwise IP-100,2013-10-29 18:43:00,
2013-10-29 14:44:00,49.4,29.0,30.24,NNW,337,2.8,8.0,45,0.00,,,0.00,Rainwise IP-100,2013-10-29 18:44:00,
2013-10-29 14:45:00,49.4,29.0,30.24,NE,45,6.8,8.0,45,0.00,,,0.00,Rainwise IP-100,2013-10-29 18:45:00,
2013-10-29 14:46:00,49.3,29.0,30.24,NNE,22,4.9,8.0,45,0.00,,,0.00,Rainwise IP-100,2013-10-29 18:46:00,
2013-10-29 14:47:00,49.2,29.0,30.24,NNE,22,5.6,8.0,45,0.00,,,0.00,Rainwise IP-100,2013-10-29 18:47:00,
2013-10-29 14:48:00,49.1,29.0,30.24,North,360,4.9,7.0,45,0.00,,,0.00,Rainwise IP-100,2013-10-29 18:48:00,
2013-10-29 14:49:00,49.1,29.0,30.24,NE,45,7.2,7.2,45,0.00,,,0.00,Rainwise IP-100,2013-10-29 18:49:00,
2013-10-29 14:50:00,49.2,29.0,30.24,NE,45,8.9,8.9,45,0.00,,,0.00,Rainwise IP-100,2013-10-29 18:50:00,
2013-10-29 14:51:00,49.3,29.0,30.24,NNW,337,3.7,8.0,45,0.00,,,0.00,Rainwise IP-100,2013-10-29 18:51:00,
2013-10-29 14:52:00,49.3,29.0,30.24,NNW,337,5.1,8.0,45,0.00,,,0.00,Rainwise IP-100,2013-10-29 18:52:00,
2013-10-29 14:53:00,49.5,29.0,30.24,NNE,22,6.8,8.0,45,0.00,,,0.00,Rainwise IP-100,2013-10-29 18:53:00,
2013-10-29 14:55:00,49.6,29.0,30.24,North,360,3.0,8.0,45,0.00,,,0.00,Rainwise IP-100,2013-10-29 18:55:00,
2013-10-29 14:57:00,49.9,29.0,30.24,NNW,337,6.5,7.0,45,0.00,,,0.00,Rainwise IP-100,2013-10-29 18:57:00,
2013-10-29 14:58:00,50.1,29.0,30.24,NNW,337,4.9,7.0,45,0.00,,,0.00,Rainwise IP-100,2013-10-29 18:58:00,
2013-10-29 14:59:00,50.1,29.0,30.24,NNW,337,3.7,7.0,45,0.00,,,0.00,Rainwise IP-100,2013-10-29 18:59:00,
2013-10-29 15:00:00,50.1,29.0,30.24,NNW,337,3.7,7.0,44,0.00,,,0.00,Rainwise IP-100,2013-10-29 19:00:00,
2013-10-29 15:01:00,50.1,29.0,30.24,North,360,0.0,7.0,44,0.00,,,0.00,Rainwise IP-100,2013-10-29 19:01:00,
2013-10-29 15:03:00,50.0,29.0,30.24,WNW,292,4.4,7.0,44,0.00,,,0.00,Rainwise IP-100,2013-10-29 19:03:00,
2013-10-29 15:04:00,49.9,29.0,30.24,NNW,337,5.4,6.0,44,0.00,,,0.00,Rainwise IP-100,2013-10-29 19:04:00,
2013-10-29 15:05:00,49.8,29.0,30.24,NNW,337,5.8,6.0,44,0.00,,,0.00,Rainwise IP-100,2013-10-29 19:05:00,
2013-10-29 15:06:00,49.8,29.0,30.24,NNW,337,4.2,6.0,44,0.00,,,0.00,Rainwise IP-100,2013-10-29 19:06:00,
2013-10-29 15:09:00,49.7,28.0,30.24,WNW,292,3.7,7.0,43,0.00,,,0.00,Rainwise IP-100,2013-10-29 19:09:00,
2013-10-29 15:10:00,49.8,28.0,30.24,WNW,292,6.5,8.0,43,0.00,,,0.00,Rainwise IP-100,2013-10-29 19:10:00,
2013-10-29 15:11:00,49.8,28.0,30.24,NE,45,7.0,9.0,43,0.00,,,0.00,Rainwise IP-100,2013-10-29 19:11:00,
2013-10-29 15:12:00,49.8,29.0,30.24,NNW,337,3.7,9.0,44,0.00,,,0.00,Rainwise IP-100,2013-10-29 19:12:00,
2013-10-29 15:15:00,49.8,29.0,30.24,SE,135,1.4,9.0,44,0.00,,,0.00,Rainwise IP-100,2013-10-29 19:15:00,
2013-10-29 15:16:00,49.9,29.0,30.24,SE,135,0.0,7.0,44,0.00,,,0.00,Rainwise IP-100,2013-10-29 19:16:00,
2013-10-29 15:17:00,49.9,29.0,30.24,NNE,22,3.0,7.0,44,0.00,,,0.00,Rainwise IP-100,2013-10-29 19:17:00,
2013-10-29 15:20:00,50.1,29.0,30.24,NE,45,3.7,6.0,44,0.00,,,0.00,Rainwise IP-100,2013-10-29 19:20:00,
2013-10-29 15:22:00,50.2,29.0,30.24,NE,45,5.6,6.0,44,0.00,,,0.00,Rainwise IP-100,2013-10-29 19:22:00,
2013-10-29 15:25:00,50.2,29.0,30.24,ESE,112,0.0,6.0,45,0.00,,,0.00,Rainwise IP-100,2013-10-29 19:25:00,
2013-10-29 15:26:00,50.2,29.0,30.24,ESE,112,0.0,6.0,45,0.00,,,0.00,Rainwise IP-100,2013-10-29 19:26:00,
2013-10-29 15:27:00,50.2,29.0,30.24,SE,135,0.0,6.0,45,0.00,,,0.00,Rainwise IP-100,2013-10-29 19:27:00,
2013-10-29 15:28:00,50.2,29.0,30.24,SSE,157,1.6,5.0,45,0.00,,,0.00,Rainwise IP-100,2013-10-29 19:28:00,
2013-10-29 15:31:00,50.7,31.0,30.24,SSW,202,3.3,3.3,46,0.00,,,0.00,Rainwise IP-100,2013-10-29 19:31:00,
2013-10-29 15:32:00,50.8,31.0,30.24,SSW,202,2.8,3.0,47,0.00,,,0.00,Rainwise IP-100,2013-10-29 19:32:00,
2013-10-29 15:33:00,51.1,32.0,30.24,SSW,202,0.0,3.0,47,0.00,,,0.00,Rainwise IP-100,2013-10-29 19:33:00,
2013-10-29 15:34:00,51.3,32.0,30.24,ENE,67,5.1,5.1,47,0.00,,,0.00,Rainwise IP-100,2013-10-29 19:34:00,
2013-10-29 15:36:00,51.6,32.0,30.24,East,90,4.2,5.0,47,0.00,,,0.00,Rainwise IP-100,2013-10-29 19:36:00,
2013-10-29 15:37:00,51.6,32.0,30.24,East,90,3.7,5.0,47,0.00,,,0.00,Rainwise IP-100,2013-10-29 19:37:00,
2013-10-29 15:38:00,51.6,32.0,30.25,East,90,2.6,5.0,47,0.00,,,0.00,Rainwise IP-100,2013-10-29 19:38:00,
2013-10-29 15:39:00,51.6,32.0,30.24,ENE,67,0.0,5.0,47,0.00,,,0.00,Rainwise IP-100,2013-10-29 19:39:00,
2013-10-29 15:42:00,51.1,32.0,30.25,SSE,157,1.2,5.0,47,0.00,,,0.00,Rainwise IP-100,2013-10-29 19:42:00,
2013-10-29 15:43:00,51.0,32.0,30.25,SSE,157,0.0,4.0,47,0.00,,,0.00,Rainwise IP-100,2013-10-29 19:43:00,
2013-10-29 15:45:00,51.0,32.0,30.25,SSE,157,0.0,3.0,47,0.00,,,0.00,Rainwise IP-100,2013-10-29 19:45:00,
2013-10-29 15:47:00,51.1,32.0,30.24,East,90,1.6,4.0,47,0.00,,,0.00,Rainwise IP-100,2013-10-29 19:47:00,
2013-10-29 15:48:00,51.1,32.0,30.24,East,90,1.2,4.0,47,0.00,,,0.00,Rainwise IP-100,2013-10-29 19:48:00,
2013-10-29 15:49:00,51.1,32.0,30.24,East,90,0.0,4.0,47,0.00,,,0.00,Rainwise IP-100,2013-10-29 19:49:00,
2013-10-29 15:50:00,51.3,32.0,30.25,SSE,157,0.0,4.0,47,0.00,,,0.00,Rainwise IP-100,2013-10-29 19:50:00,
2013-10-29 15:51:00,51.3,32.0,30.25,SSE,157,4.7,4.7,47,0.00,,,0.00,Rainwise IP-100,2013-10-29 19:51:00,
2013-10-29 15:52:00,51.5,32.0,30.24,SSE,157,3.3,5.0,46,0.00,,,0.00,Rainwise IP-100,2013-10-29 19:52:00,
2013-10-29 15:53:00,51.5,32.0,30.24,ESE,112,3.5,5.0,46,0.00,,,0.00,Rainwise IP-100,2013-10-29 19:53:00,
2013-10-29 15:54:00,51.5,32.0,30.24,ESE,112,0.0,5.0,46,0.00,,,0.00,Rainwise IP-100,2013-10-29 19:54:00,
2013-10-29 15:55:00,51.6,32.0,30.25,South,180,1.4,5.0,46,0.00,,,0.00,Rainwise IP-100,2013-10-29 19:55:00,
2013-10-29 15:57:00,51.8,32.0,30.25,SSE,157,2.3,4.0,46,0.00,,,0.00,Rainwise IP-100,2013-10-29 19:57:00,
2013-10-29 15:58:00,51.8,32.0,30.25,SSE,157,1.2,4.0,46,0.00,,,0.00,Rainwise IP-100,2013-10-29 19:58:00,
2013-10-29 15:59:00,52.0,32.0,30.25,East,90,3.5,4.0,46,0.00,,,0.00,Rainwise IP-100,2013-10-29 19:59:00,
2013-10-29 16:02:00,51.9,32.0,30.25,ESE,112,2.3,5.0,46,0.00,,,0.00,Rainwise IP-100,2013-10-29 20:02:00,
2013-10-29 16:03:00,51.8,32.0,30.25,ESE,112,2.1,5.0,46,0.00,,,0.00,Rainwise IP-100,2013-10-29 20:03:00,
2013-10-29 16:04:00,51.7,32.0,30.24,ENE,67,4.9,6.0,46,0.00,,,0.00,Rainwise IP-100,2013-10-29 20:04:00,
2013-10-29 16:07:00,51.0,32.0,30.25,ENE,67,6.8,7.0,47,0.00,,,0.00,Rainwise IP-100,2013-10-29 20:07:00,
2013-10-29 16:08:00,50.8,32.0,30.25,East,90,5.6,7.0,48,0.00,,,0.00,Rainwise IP-100,2013-10-29 20:08:00,
2013-10-29 16:09:00,50.6,32.0,30.25,East,90,5.8,7.0,48,0.00,,,0.00,Rainwise IP-100,2013-10-29 20:09:00,
2013-10-29 16:10:00,50.4,32.0,30.25,ENE,67,4.7,7.0,48,0.00,,,0.00,Rainwise IP-100,2013-10-29 20:10:00,
2013-10-29 16:12:00,50.0,32.0,30.25,NE,45,2.1,7.0,49,0.00,,,0.00,Rainwise IP-100,2013-10-29 20:12:00,
2013-10-29 16:13:00,49.9,32.0,30.24,East,90,2.3,6.0,49,0.00,,,0.00,Rainwise IP-100,2013-10-29 20:13:00,
2013-10-29 16:14:00,49.9,32.0,30.24,East,90,1.4,6.0,49,0.00,,,0.00,Rainwise IP-100,2013-10-29 20:14:00,
2013-10-29 16:15:00,49.8,32.0,30.24,ENE,67,1.9,6.0,49,0.00,,,0.00,Rainwise IP-100,2013-10-29 20:15:00,
2013-10-29 16:17:00,49.7,32.0,30.25,ENE,67,0.0,3.0,49,0.00,,,0.00,Rainwise IP-100,2013-10-29 20:17:00,
2013-10-29 16:18:00,49.7,32.0,30.25,ENE,67,0.0,3.0,49,0.00,,,0.00,Rainwise IP-100,2013-10-29 20:18:00,
2013-10-29 16:19:00,49.7,32.0,30.25,ENE,67,0.0,3.0,49,0.00,,,0.00,Rainwise IP-100,2013-10-29 20:19:00,
2013-10-29 16:20:00,49.7,32.0,30.25,East,90,2.8,3.0,49,0.00,,,0.00,Rainwise IP-100,2013-10-29 20:20:00,
2013-10-29 16:22:00,49.9,32.0,30.25,ESE,112,0.0,3.0,49,0.00,,,0.00,Rainwise IP-100,2013-10-29 20:22:00,
2013-10-29 16:23:00,50.0,32.0,30.25,ENE,67,2.8,3.0,49,0.00,,,0.00,Rainwise IP-100,2013-10-29 20:23:00,
2013-10-29 16:24:00,50.1,32.0,30.25,ESE,112,2.6,4.0,49,0.00,,,0.00,Rainwise IP-100,2013-10-29 20:24:00,
2013-10-29 16:25:00,50.3,32.0,30.24,SE,135,4.0,4.0,49,0.00,,,0.00,Rainwise IP-100,2013-10-29 20:25:00,
2013-10-29 16:26:00,50.3,32.0,30.24,SSE,157,4.7,5.0,49,0.00,,,0.00,Rainwise IP-100,2013-10-29 20:26:00,
2013-10-29 16:28:00,50.9,33.0,30.25,SSE,157,3.5,5.0,49,0.00,,,0.00,Rainwise IP-100,2013-10-29 20:28:00,
2013-10-29 16:29:00,50.9,33.0,30.25,SE,135,3.5,5.0,49,0.00,,,0.00,Rainwise IP-100,2013-10-29 20:29:00,
2013-10-29 16:30:00,51.0,33.0,30.25,SE,135,3.7,5.0,49,0.00,,,0.00,Rainwise IP-100,2013-10-29 20:30:00,
2013-10-29 16:33:00,51.1,33.0,30.24,East,90,3.0,5.0,49,0.00,,,0.00,Rainwise IP-100,2013-10-29 20:33:00,
2013-10-29 16:34:00,51.1,33.0,30.25,ESE,112,5.6,5.6,49,0.00,,,0.00,Rainwise IP-100,2013-10-29 20:34:00,
2013-10-29 16:35:00,51.0,33.0,30.25,ESE,112,3.5,5.0,49,0.00,,,0.00,Rainwise IP-100,2013-10-29 20:35:00,
2013-10-29 16:36:00,51.0,33.0,30.25,East,90,3.5,5.0,49,0.00,,,0.00,Rainwise IP-100,2013-10-29 20:36:00,
2013-10-29 16:39:00,50.4,32.0,30.25,ESE,112,2.6,5.0,49,0.00,,,0.00,Rainwise IP-100,2013-10-29 20:39:00,
2013-10-29 16:40:00,50.4,32.0,30.25,ENE,67,3.7,5.0,49,0.00,,,0.00,Rainwise IP-100,2013-10-29 20:40:00,
2013-10-29 16:41:00,50.3,32.0,30.25,East,90,4.0,5.0,49,0.00,,,0.00,Rainwise IP-100,2013-10-29 20:41:00,
2013-10-29 16:43:00,50.0,32.0,30.25,ENE,67,3.3,4.0,50,0.00,,,0.00,Rainwise IP-100,2013-10-29 20:43:00,
2013-10-29 16:44:00,49.9,32.0,30.25,ESE,112,3.7,4.0,50,0.00,,,0.00,Rainwise IP-100,2013-10-29 20:44:00,
2013-10-29 16:45:00,49.9,32.0,30.25,ESE,112,3.3,4.0,50,0.00,,,0.00,Rainwise IP-100,2013-10-29 20:45:00,
2013-10-29 16:46:00,49.8,32.0,30.24,ESE,112,1.6,4.0,50,0.00,,,0.00,Rainwise IP-100,2013-10-29 20:46:00,
2013-10-29 16:47:00,49.8,32.0,30.24,ESE,112,2.8,4.0,50,0.00,,,0.00,Rainwise IP-100,2013-10-29 20:47:00,
2013-10-29 16:49:00,49.7,32.0,30.25,ESE,112,2.6,4.0,50,0.00,,,0.00,Rainwise IP-100,2013-10-29 20:49:00,
2013-10-29 16:50:00,49.6,32.0,30.25,East,90,4.2,4.2,51,0.00,,,0.00,Rainwise IP-100,2013-10-29 20:50:00,
2013-10-29 16:51:00,49.6,32.0,30.25,ESE,112,4.0,4.0,51,0.00,,,0.00,Rainwise IP-100,2013-10-29 20:51:00,
2013-10-29 16:52:00,49.6,32.0,30.25,ESE,112,3.5,5.0,51,0.00,,,0.00,Rainwise IP-100,2013-10-29 20:52:00,
2013-10-29 16:54:00,49.5,32.0,30.25,ESE,112,2.6,5.0,51,0.00,,,0.00,Rainwise IP-100,2013-10-29 20:54:00,
2013-10-29 16:55:00,49.5,32.0,30.25,ESE,112,2.8,5.0,51,0.00,,,0.00,Rainwise IP-100,2013-10-29 20:55:00,
2013-10-29 16:56:00,49.5,32.0,30.25,ESE,112,3.5,5.0,51,0.00,,,0.00,Rainwise IP-100,2013-10-29 20:56:00,
2013-10-29 16:57:00,49.4,32.0,30.25,East,90,3.7,4.0,51,0.00,,,0.00,Rainwise IP-100,2013-10-29 20:57:00,
2013-10-29 17:00:00,49.3,32.0,30.25,ESE,112,1.9,4.0,51,0.00,,,0.00,Rainwise IP-100,2013-10-29 21:00:00,
2013-10-29 17:01:00,49.2,32.0,30.25,ESE,112,4.2,4.2,51,0.00,,,0.00,Rainwise IP-100,2013-10-29 21:01:00,
2013-10-29 17:02:00,49.2,32.0,30.25,ESE,112,4.2,4.2,51,0.00,,,0.00,Rainwise IP-100,2013-10-29 21:02:00,
2013-10-29 17:03:00,49.2,32.0,30.25,ESE,112,3.7,4.0,51,0.00,,,0.00,Rainwise IP-100,2013-10-29 21:03:00,
2013-10-29 17:05:00,49.1,32.0,30.25,ESE,112,3.3,4.0,51,0.00,,,0.00,Rainwise IP-100,2013-10-29 21:05:00,
2013-10-29 17:06:00,49.1,32.0,30.24,ESE,112,2.6,4.0,51,0.00,,,0.00,Rainwise IP-100,2013-10-29 21:06:00,
2013-10-29 17:08:00,49.1,32.0,30.24,ESE,112,1.6,4.0,51,0.00,,,0.00,Rainwise IP-100,2013-10-29 21:08:00,
2013-10-29 17:10:00,49.1,32.0,30.24,ESE,112,1.6,3.0,51,0.00,,,0.00,Rainwise IP-100,2013-10-29 21:10:00,
2013-10-29 17:11:00,49.1,32.0,30.24,ESE,112,1.4,3.0,51,0.00,,,0.00,Rainwise IP-100,2013-10-29 21:11:00,
2013-10-29 17:13:00,49.0,32.0,30.24,East,90,2.3,2.3,51,0.00,,,0.00,Rainwise IP-100,2013-10-29 21:13:00,
2013-10-29 17:14:00,49.0,32.0,30.24,East,90,1.6,2.0,51,0.00,,,0.00,Rainwise IP-100,2013-10-29 21:14:00,
2013-10-29 17:16:00,49.0,32.0,30.24,East,90,3.3,3.3,51,0.00,,,0.00,Rainwise IP-100,2013-10-29 21:16:00,
2013-10-29 17:17:00,49.0,32.0,30.25,East,90,2.6,4.0,51,0.00,,,0.00,Rainwise IP-100,2013-10-29 21:17:00,
2013-10-29 17:19:00,48.9,32.0,30.24,East,90,2.1,4.0,52,0.00,,,0.00,Rainwise IP-100,2013-10-29 21:19:00,
2013-10-29 17:21:00,48.9,32.0,30.25,East,90,3.0,3.0,52,0.00,,,0.00,Rainwise IP-100,2013-10-29 21:21:00,
2013-10-29 17:22:00,48.9,32.0,30.25,East,90,2.8,3.0,52,0.00,,,0.00,Rainwise IP-100,2013-10-29 21:22:00,
2013-10-29 17:23:00,48.8,32.0,30.24,East,90,2.8,3.0,52,0.00,,,0.00,Rainwise IP-100,2013-10-29 21:23:00,
2013-10-29 17:24:00,48.8,32.0,30.25,East,90,2.3,3.0,52,0.00,,,0.00,Rainwise IP-100,2013-10-29 21:24:00,
2013-10-29 17:26:00,48.6,32.0,30.25,East,90,2.8,3.0,52,0.00,,,0.00,Rainwise IP-100,2013-10-29 21:26:00,
2013-10-29 17:27:00,48.6,32.0,30.25,East,90,2.1,3.0,52,0.00,,,0.00,Rainwise IP-100,2013-10-29 21:27:00,
2013-10-29 17:29:00,48.5,32.0,30.24,East,90,2.3,2.3,52,0.00,,,0.00,Rainwise IP-100,2013-10-29 21:29:00,
2013-10-29 17:30:00,48.5,32.0,30.24,East,90,1.9,2.0,52,0.00,,,0.00,Rainwise IP-100,2013-10-29 21:30:00,
2013-10-29 17:32:00,48.4,32.0,30.25,East,90,1.9,2.0,52,0.00,,,0.00,Rainwise IP-100,2013-10-29 21:32:00,
2013-10-29 17:33:00,48.3,32.0,30.24,East,90,1.6,2.0,53,0.00,,,0.00,Rainwise IP-100,2013-10-29 21:33:00,
2013-10-29 17:34:00,48.3,32.0,30.24,East,90,1.4,2.0,53,0.00,,,0.00,Rainwise IP-100,2013-10-29 21:34:00,
2013-10-29 17:35:00,48.3,32.0,30.25,East,90,1.4,2.0,53,0.00,,,0.00,Rainwise IP-100,2013-10-29 21:35:00,
2013-10-29 17:36:00,48.2,32.0,30.24,East,90,1.6,1.6,53,0.00,,,0.00,Rainwise IP-100,2013-10-29 21:36:00,
2013-10-29 17:37:00,48.2,32.0,30.24,East,90,1.6,1.6,53,0.00,,,0.00,Rainwise IP-100,2013-10-29 21:37:00,
2013-10-29 17:38:00,48.2,32.0,30.24,East,90,1.4,1.4,53,0.00,,,0.00,Rainwise IP-100,2013-10-29 21:38:00,
2013-10-29 17:40:00,48.2,32.0,30.24,East,90,1.6,2.0,53,0.00,,,0.00,Rainwise IP-100,2013-10-29 21:40:00,
2013-10-29 17:41:00,48.1,32.0,30.24,East,90,1.9,2.0,53,0.00,,,0.00,Rainwise IP-100,2013-10-29 21:41:00,
2013-10-29 17:42:00,48.1,32.0,30.24,East,90,1.6,2.0,53,0.00,,,0.00,Rainwise IP-100,2013-10-29 21:42:00,
2013-10-29 17:43:00,48.1,32.0,30.24,East,90,1.6,2.0,53,0.00,,,0.00,Rainwise IP-100,2013-10-29 21:43:00,
2013-10-29 17:44:00,48.0,32.0,30.24,East,90,1.9,2.0,53,0.00,,,0.00,Rainwise IP-100,2013-10-29 21:44:00,
2013-10-29 17:45:00,48.0,32.0,30.24,East,90,1.6,2.0,53,0.00,,,0.00,Rainwise IP-100,2013-10-29 21:45:00,
2013-10-29 17:48:00,47.9,32.0,30.24,East,90,2.1,2.1,53,0.00,,,0.00,Rainwise IP-100,2013-10-29 21:48:00,
2013-10-29 17:49:00,47.9,32.0,30.24,East,90,1.9,2.0,53,0.00,,,0.00,Rainwise IP-100,2013-10-29 21:49:00,
2013-10-29 17:50:00,47.8,31.0,30.24,East,90,2.1,2.1,53,0.00,,,0.00,Rainwise IP-100,2013-10-29 21:50:00,
2013-10-29 17:53:00,47.7,32.0,30.24,East,90,1.6,2.0,54,0.00,,,0.00,Rainwise IP-100,2013-10-29 21:53:00,
2013-10-29 17:54:00,47.7,32.0,30.24,East,90,1.9,2.0,54,0.00,,,0.00,Rainwise IP-100,2013-10-29 21:54:00,
2013-10-29 17:55:00,47.6,32.0,30.24,East,90,1.4,2.0,54,0.00,,,0.00,Rainwise IP-100,2013-10-29 21:55:00,
2013-10-29 17:56:00,47.6,32.0,30.24,East,90,1.2,1.2,54,0.00,,,0.00,Rainwise IP-100,2013-10-29 21:56:00,
2013-10-29 17:58:00,47.6,32.0,30.24,East,90,1.6,1.6,54,0.00,,,0.00,Rainwise IP-100,2013-10-29 21:58:00,
2013-10-29 17:59:00,47.6,32.0,30.23,East,90,1.4,1.4,54,0.00,,,0.00,Rainwise IP-100,2013-10-29 21:59:00,
2013-10-29 18:01:00,47.5,32.0,30.24,East,90,0.0,1.0,54,0.00,,,0.00,Rainwise IP-100,2013-10-29 22:01:00,
2013-10-29 18:04:00,47.4,32.0,30.24,East,90,1.2,1.2,54,0.00,,,0.00,Rainwise IP-100,2013-10-29 22:04:00,
2013-10-29 18:05:00,47.4,32.0,30.24,East,90,1.2,1.2,54,0.00,,,0.00,Rainwise IP-100,2013-10-29 22:05:00,
2013-10-29 18:06:00,47.4,32.0,30.24,East,90,0.0,1.0,54,0.00,,,0.00,Rainwise IP-100,2013-10-29 22:06:00,
2013-10-29 18:09:00,47.2,32.0,30.23,East,90,1.4,1.4,55,0.00,,,0.00,Rainwise IP-100,2013-10-29 22:09:00,
2013-10-29 18:10:00,47.2,32.0,30.23,East,90,1.2,1.2,55,0.00,,,0.00,Rainwise IP-100,2013-10-29 22:10:00,
2013-10-29 18:11:00,47.2,32.0,30.23,ESE,112,3.0,3.0,55,0.00,,,0.00,Rainwise IP-100,2013-10-29 22:11:00,
2013-10-29 18:12:00,47.2,32.0,30.23,ESE,112,3.5,3.5,55,0.00,,,0.00,Rainwise IP-100,2013-10-29 22:12:00,
2013-10-29 18:14:00,47.2,32.0,30.23,ESE,112,3.0,3.0,55,0.00,,,0.00,Rainwise IP-100,2013-10-29 22:14:00,
2013-10-29 18:15:00,47.2,32.0,30.23,ESE,112,3.0,3.0,55,0.00,,,0.00,Rainwise IP-100,2013-10-29 22:15:00,
2013-10-29 18:17:00,47.2,32.0,30.23,ESE,112,3.7,3.7,55,0.00,,,0.00,Rainwise IP-100,2013-10-29 22:17:00,
2013-10-29 18:20:00,47.2,32.0,30.23,ESE,112,3.7,4.0,56,0.00,,,0.00,Rainwise IP-100,2013-10-29 22:20:00,
2013-10-29 18:21:00,47.2,32.0,30.23,ESE,112,3.5,4.0,56,0.00,,,0.00,Rainwise IP-100,2013-10-29 22:21:00,
2013-10-29 18:22:00,47.3,32.0,30.23,ESE,112,3.7,4.0,56,0.00,,,0.00,Rainwise IP-100,2013-10-29 22:22:00,
2013-10-29 18:23:00,47.3,32.0,30.23,ESE,112,3.3,4.0,56,0.00,,,0.00,Rainwise IP-100,2013-10-29 22:23:00,
2013-10-29 18:26:00,47.4,32.0,30.23,ESE,112,3.3,3.3,55,0.00,,,0.00,Rainwise IP-100,2013-10-29 22:26:00,
2013-10-29 18:28:00,47.4,32.0,30.24,ESE,112,3.5,3.5,55,0.00,,,0.00,Rainwise IP-100,2013-10-29 22:28:00,
2013-10-29 18:29:00,47.4,32.0,30.24,ESE,112,2.8,3.0,55,0.00,,,0.00,Rainwise IP-100,2013-10-29 22:29:00,
2013-10-29 18:31:00,47.5,32.0,30.24,ESE,112,2.8,3.0,55,0.00,,,0.00,Rainwise IP-100,2013-10-29 22:31:00,
2013-10-29 18:32:00,47.5,32.0,30.24,ESE,112,3.0,3.0,55,0.00,,,0.00,Rainwise IP-100,2013-10-29 22:32:00,
2013-10-29 18:34:00,47.5,32.0,30.24,ESE,112,3.3,3.3,55,0.00,,,0.00,Rainwise IP-100,2013-10-29 22:34:00,
2013-10-29 18:36:00,47.6,32.0,30.24,ESE,112,3.5,3.5,55,0.00,,,0.00,Rainwise IP-100,2013-10-29 22:36:00,
2013-10-29 18:37:00,47.6,32.0,30.24,ESE,112,3.5,3.5,55,0.00,,,0.00,Rainwise IP-100,2013-10-29 22:37:00,
2013-10-29 18:39:00,47.6,32.0,30.24,ESE,112,3.7,4.0,55,0.00,,,0.00,Rainwise IP-100,2013-10-29 22:39:00,
2013-10-29 18:41:00,47.7,32.0,30.23,ESE,112,3.7,4.0,55,0.00,,,0.00,Rainwise IP-100,2013-10-29 22:41:00,
2013-10-29 18:42:00,47.7,32.0,30.23,ESE,112,3.7,4.0,55,0.00,,,0.00,Rainwise IP-100,2013-10-29 22:42:00,
2013-10-29 18:44:00,47.7,32.0,30.24,ESE,112,3.7,4.0,55,0.00,,,0.00,Rainwise IP-100,2013-10-29 22:44:00,
2013-10-29 18:45:00,47.7,32.0,30.24,ESE,112,3.7,4.0,55,0.00,,,0.00,Rainwise IP-100,2013-10-29 22:45:00,
2013-10-29 18:46:00,47.7,32.0,30.24,ESE,112,3.0,4.0,55,0.00,,,0.00,Rainwise IP-100,2013-10-29 22:46:00,
2013-10-29 18:49:00,47.7,32.0,30.24,ESE,112,4.0,4.0,55,0.00,,,0.00,Rainwise IP-100,2013-10-29 22:49:00,
2013-10-29 18:50:00,47.7,32.0,30.24,ESE,112,3.5,4.0,55,0.00,,,0.00,Rainwise IP-100,2013-10-29 22:50:00,
2013-10-29 18:51:00,47.7,32.0,30.24,ESE,112,3.3,4.0,55,0.00,,,0.00,Rainwise IP-100,2013-10-29 22:51:00,
2013-10-29 18:52:00,47.7,32.0,30.24,ESE,112,2.6,4.0,55,0.00,,,0.00,Rainwise IP-100,2013-10-29 22:52:00,
2013-10-29 18:54:00,47.7,32.0,30.24,ESE,112,2.8,4.0,55,0.00,,,0.00,Rainwise IP-100,2013-10-29 22:54:00,
2013-10-29 18:56:00,47.7,32.0,30.24,ESE,112,2.3,3.0,55,0.00,,,0.00,Rainwise IP-100,2013-10-29 22:56:00,
2013-10-29 18:57:00,47.6,32.0,30.23,ESE,112,2.3,3.0,55,0.00,,,0.00,Rainwise IP-100,2013-10-29 22:57:00,
2013-10-29 18:59:00,47.7,32.0,30.24,ESE,112,1.9,3.0,55,0.00,,,0.00,Rainwise IP-100,2013-10-29 22:59:00,
2013-10-29 19:00:00,47.6,32.0,30.24,ESE,112,1.6,2.0,55,0.00,,,0.00,Rainwise IP-100,2013-10-29 23:00:00,
2013-10-29 19:01:00,47.6,32.0,30.24,ESE,112,2.1,2.1,55,0.00,,,0.00,Rainwise IP-100,2013-10-29 23:01:00,
2013-10-29 19:02:00,47.6,32.0,30.24,ESE,112,1.9,2.0,55,0.00,,,0.00,Rainwise IP-100,2013-10-29 23:02:00,
2013-10-29 19:03:00,47.5,32.0,30.24,ESE,112,2.6,2.6,55,0.00,,,0.00,Rainwise IP-100,2013-10-29 23:03:00,
2013-10-29 19:04:00,47.5,32.0,30.24,ESE,112,2.3,2.3,55,0.00,,,0.00,Rainwise IP-100,2013-10-29 23:04:00,
2013-10-29 19:05:00,47.5,32.0,30.24,ESE,112,2.3,2.3,55,0.00,,,0.00,Rainwise IP-100,2013-10-29 23:05:00,
2013-10-29 19:06:00,47.4,32.0,30.24,ESE,112,2.6,2.6,55,0.00,,,0.00,Rainwise IP-100,2013-10-29 23:06:00,
2013-10-29 19:08:00,47.4,32.0,30.24,ESE,112,2.6,2.6,55,0.00,,,0.00,Rainwise IP-100,2013-10-29 23:08:00,
2013-10-29 19:10:00,47.4,32.0,30.24,ESE,112,2.3,2.3,55,0.00,,,0.00,Rainwise IP-100,2013-10-29 23:10:00,
2013-10-29 19:11:00,47.3,32.0,30.24,ESE,112,2.8,3.0,55,0.00,,,0.00,Rainwise IP-100,2013-10-29 23:11:00,
2013-10-29 19:13:00,47.3,32.0,30.24,SSE,157,3.5,3.5,55,0.00,,,0.00,Rainwise IP-100,2013-10-29 23:13:00,
2013-10-29 19:14:00,47.3,32.0,30.24,SSE,157,3.7,3.7,56,0.00,,,0.00,Rainwise IP-100,2013-10-29 23:14:00,
2013-10-29 19:15:00,47.3,32.0,30.24,SSE,157,3.7,4.0,56,0.00,,,0.00,Rainwise IP-100,2013-10-29 23:15:00,
2013-10-29 19:16:00,47.3,32.0,30.24,SSE,157,3.7,4.0,56,0.00,,,0.00,Rainwise IP-100,2013-10-29 23:16:00,
2013-10-29 19:17:00,47.3,32.0,30.24,SSE,157,3.7,4.0,56,0.00,,,0.00,Rainwise IP-100,2013-10-29 23:17:00,
2013-10-29 19:18:00,47.2,32.0,30.24,SSE,157,4.4,4.4,56,0.00,,,0.00,Rainwise IP-100,2013-10-29 23:18:00,
2013-10-29 19:21:00,47.2,32.0,30.24,SSE,157,4.2,4.2,56,0.00,,,0.00,Rainwise IP-100,2013-10-29 23:21:00,
2013-10-29 19:22:00,47.1,32.0,30.24,SSE,157,3.7,4.0,56,0.00,,,0.00,Rainwise IP-100,2013-10-29 23:22:00,
2013-10-29 19:23:00,47.1,32.0,30.24,SSE,157,3.5,4.0,56,0.00,,,0.00,Rainwise IP-100,2013-10-29 23:23:00,
2013-10-29 19:26:00,47.2,32.0,30.24,SSE,157,3.7,4.0,56,0.00,,,0.00,Rainwise IP-100,2013-10-29 23:26:00,
2013-10-29 19:27:00,47.2,32.0,30.24,SSE,157,4.0,4.0,56,0.00,,,0.00,Rainwise IP-100,2013-10-29 23:27:00,
2013-10-29 19:28:00,47.2,32.0,30.24,SSE,157,4.4,4.4,56,0.00,,,0.00,Rainwise IP-100,2013-10-29 23:28:00,
2013-10-29 19:31:00,47.3,32.0,30.24,SSE,157,4.7,5.0,56,0.00,,,0.00,Rainwise IP-100,2013-10-29 23:31:00,
2013-10-29 19:32:00,47.3,32.0,30.24,SSE,157,4.9,5.0,56,0.00,,,0.00,Rainwise IP-100,2013-10-29 23:32:00,
2013-10-29 19:33:00,47.3,32.0,30.24,SSE,157,3.7,5.0,56,0.00,,,0.00,Rainwise IP-100,2013-10-29 23:33:00,
2013-10-29 19:34:00,47.3,32.0,30.23,SSE,157,3.7,5.0,56,0.00,,,0.00,Rainwise IP-100,2013-10-29 23:34:00,
2013-10-29 19:36:00,47.1,32.0,30.24,SSE,157,4.9,5.0,56,0.00,,,0.00,Rainwise IP-100,2013-10-29 23:36:00,
2013-10-29 19:37:00,47.1,32.0,30.24,SSE,157,5.4,5.4,56,0.00,,,0.00,Rainwise IP-100,2013-10-29 23:37:00,
2013-10-29 19:39:00,47.1,32.0,30.24,SSE,157,5.1,5.1,56,0.00,,,0.00,Rainwise IP-100,2013-10-29 23:39:00,
2013-10-29 19:42:00,47.1,32.0,30.23,SSE,157,4.4,5.0,56,0.00,,,0.00,Rainwise IP-100,2013-10-29 23:42:00,
2013-10-29 19:43:00,47.1,32.0,30.24,SSE,157,4.0,5.0,56,0.00,,,0.00,Rainwise IP-100,2013-10-29 23:43:00,
2013-10-29 19:44:00,47.1,32.0,30.24,SSE,157,3.5,5.0,56,0.00,,,0.00,Rainwise IP-100,2013-10-29 23:44:00,
2013-10-29 19:45:00,47.1,32.0,30.24,SSE,157,3.7,5.0,56,0.00,,,0.00,Rainwise IP-100,2013-10-29 23:45:00,
2013-10-29 19:47:00,47.3,32.0,30.24,SSE,157,3.5,4.0,56,0.00,,,0.00,Rainwise IP-100,2013-10-29 23:47:00,
2013-10-29 19:48:00,47.3,32.0,30.24,SSE,157,3.0,4.0,56,0.00,,,0.00,Rainwise IP-100,2013-10-29 23:48:00,
2013-10-29 19:49:00,47.3,32.0,30.24,SSE,157,3.0,4.0,56,0.00,,,0.00,Rainwise IP-100,2013-10-29 23:49:00,
2013-10-29 19:51:00,47.5,32.0,30.24,SSE,157,2.8,3.0,56,0.00,,,0.00,Rainwise IP-100,2013-10-29 23:51:00,
2013-10-29 19:53:00,47.6,32.0,30.24,SSE,157,2.6,3.0,56,0.00,,,0.00,Rainwise IP-100,2013-10-29 23:53:00,
2013-10-29 19:54:00,47.6,32.0,30.24,SSE,157,2.8,3.0,56,0.00,,,0.00,Rainwise IP-100,2013-10-29 23:54:00,
2013-10-29 19:55:00,47.6,32.0,30.23,SSE,157,2.6,3.0,56,0.00,,,0.00,Rainwise IP-100,2013-10-29 23:55:00,
2013-10-29 19:56:00,47.7,32.0,30.24,SSE,157,1.9,3.0,56,0.00,,,0.00,Rainwise IP-100,2013-10-29 23:56:00,
2013-10-29 19:58:00,47.7,32.0,30.24,SSE,157,1.9,3.0,56,0.00,,,0.00,Rainwise IP-100,2013-10-29 23:58:00,
2013-10-29 19:59:00,47.7,32.0,30.24,SSE,157,1.6,2.0,56,0.00,,,0.00,Rainwise IP-100,2013-10-29 23:59:00,
2013-10-29 20:00:00,47.7,32.0,30.24,SSE,157,1.9,2.0,56,0.00,,,0.00,Rainwise IP-100,2013-10-30 00:00:00,
2013-10-29 20:01:00,47.7,32.0,30.24,SSE,157,2.3,2.3,56,0.00,,,0.00,Rainwise IP-100,2013-10-30 00:01:00,
2013-10-29 20:04:00,47.6,32.0,30.24,SSE,157,2.3,3.0,56,0.00,,,0.00,Rainwise IP-100,2013-10-30 00:04:00,
2013-10-29 20:05:00,47.6,32.0,30.24,SE,135,3.0,3.0,56,0.00,,,0.00,Rainwise IP-100,2013-10-30 00:05:00,
2013-10-29 20:07:00,47.6,32.0,30.24,SE,135,2.8,3.0,56,0.00,,,0.00,Rainwise IP-100,2013-10-30 00:07:00,
2013-10-29 20:10:00,47.7,32.0,30.24,ESE,112,3.0,3.0,56,0.00,,,0.00,Rainwise IP-100,2013-10-30 00:10:00,
2013-10-29 20:11:00,47.7,32.0,30.24,ESE,112,3.3,3.3,56,0.00,,,0.00,Rainwise IP-100,2013-10-30 00:11:00,
2013-10-29 20:12:00,47.8,32.0,30.24,ESE,112,3.5,3.5,56,0.00,,,0.00,Rainwise IP-100,2013-10-30 00:12:00,
2013-10-29 20:15:00,47.9,33.0,30.24,ESE,112,3.7,4.0,55,0.00,,,0.00,Rainwise IP-100,2013-10-30 00:15:00,
2013-10-29 20:16:00,47.9,33.0,30.24,ESE,112,3.7,4.0,55,0.00,,,0.00,Rainwise IP-100,2013-10-30 00:16:00,
2013-10-29 20:17:00,48.0,33.0,30.24,ESE,112,3.7,4.0,55,0.00,,,0.00,Rainwise IP-100,2013-10-30 00:17:00,
2013-10-29 20:20:00,48.0,33.0,30.24,ESE,112,3.3,4.0,55,0.00,,,0.00,Rainwise IP-100,2013-10-30 00:20:00,
2013-10-29 20:21:00,48.1,33.0,30.24,ESE,112,3.3,3.3,55,0.00,,,0.00,Rainwise IP-100,2013-10-30 00:21:00,
2013-10-29 20:22:00,48.1,33.0,30.24,ESE,112,3.5,3.5,55,0.00,,,0.00,Rainwise IP-100,2013-10-30 00:22:00,
2013-10-29 20:23:00,48.1,33.0,30.24,ESE,112,3.3,3.3,55,0.00,,,0.00,Rainwise IP-100,2013-10-30 00:23:00,
2013-10-29 20:25:00,48.2,33.0,30.24,ESE,112,3.0,3.0,55,0.00,,,0.00,Rainwise IP-100,2013-10-30 00:25:00,
2013-10-29 20:26:00,48.2,33.0,30.24,ESE,112,3.3,3.3,55,0.00,,,0.00,Rainwise IP-100,2013-10-30 00:26:00,
2013-10-29 20:27:00,48.2,33.0,30.24,ESE,112,3.3,3.3,55,0.00,,,0.00,Rainwise IP-100,2013-10-30 00:27:00,
2013-10-29 20:28:00,48.2,33.0,30.24,ESE,112,3.5,3.5,55,0.00,,,0.00,Rainwise IP-100,2013-10-30 00:28:00,
2013-10-29 20:29:00,48.2,33.0,30.24,ESE,112,3.3,3.3,55,0.00,,,0.00,Rainwise IP-100,2013-10-30 00:29:00,
2013-10-29 20:30:00,48.2,33.0,30.24,ESE,112,3.0,3.0,55,0.00,,,0.00,Rainwise IP-100,2013-10-30 00:30:00,
2013-10-29 20:32:00,48.2,33.0,30.24,ESE,112,3.0,3.0,55,0.00,,,0.00,Rainwise IP-100,2013-10-30 00:32:00,
2013-10-29 20:34:00,48.2,33.0,30.24,ESE,112,3.7,3.7,55,0.00,,,0.00,Rainwise IP-100,2013-10-30 00:34:00,
2013-10-29 20:36:00,48.2,33.0,30.24,ESE,112,3.7,4.0,55,0.00,,,0.00,Rainwise IP-100,2013-10-30 00:36:00,
2013-10-29 20:37:00,48.2,33.0,30.24,ESE,112,4.2,4.2,55,0.00,,,0.00,Rainwise IP-100,2013-10-30 00:37:00,
2013-10-29 20:38:00,48.2,33.0,30.24,ESE,112,3.7,4.0,55,0.00,,,0.00,Rainwise IP-100,2013-10-30 00:38:00,
2013-10-29 20:39:00,48.2,33.0,30.24,ESE,112,3.5,4.0,55,0.00,,,0.00,Rainwise IP-100,2013-10-30 00:39:00,
2013-10-29 20:41:00,48.2,33.0,30.24,ESE,112,3.5,4.0,55,0.00,,,0.00,Rainwise IP-100,2013-10-30 00:41:00,
2013-10-29 20:42:00,48.2,33.0,30.24,ESE,112,3.5,4.0,55,0.00,,,0.00,Rainwise IP-100,2013-10-30 00:42:00,
2013-10-29 20:43:00,48.2,33.0,30.24,ESE,112,3.7,4.0,55,0.00,,,0.00,Rainwise IP-100,2013-10-30 00:43:00,
2013-10-29 20:45:00,48.2,33.0,30.24,ESE,112,3.7,4.0,56,0.00,,,0.00,Rainwise IP-100,2013-10-30 00:45:00,
2013-10-29 20:47:00,48.2,33.0,30.24,ESE,112,3.5,4.0,56,0.00,,,0.00,Rainwise IP-100,2013-10-30 00:47:00,
2013-10-29 20:48:00,48.2,33.0,30.24,ESE,112,3.3,4.0,56,0.00,,,0.00,Rainwise IP-100,2013-10-30 00:48:00,
2013-10-29 20:49:00,48.2,33.0,30.24,ESE,112,3.7,4.0,56,0.00,,,0.00,Rainwise IP-100,2013-10-30 00:49:00,
2013-10-29 20:50:00,48.2,33.0,30.24,ESE,112,3.7,4.0,56,0.00,,,0.00,Rainwise IP-100,2013-10-30 00:50:00,
2013-10-29 20:52:00,48.2,33.0,30.24,ESE,112,4.0,4.0,56,0.00,,,0.00,Rainwise IP-100,2013-10-30 00:52:00,
2013-10-29 20:53:00,48.2,33.0,30.24,ESE,112,3.7,4.0,56,0.00,,,0.00,Rainwise IP-100,2013-10-30 00:53:00,
2013-10-29 20:54:00,48.2,33.0,30.24,ESE,112,3.5,4.0,56,0.00,,,0.00,Rainwise IP-100,2013-10-30 00:54:00,
2013-10-29 20:55:00,48.2,33.0,30.24,East,90,4.2,4.2,56,0.00,,,0.00,Rainwise IP-100,2013-10-30 00:55:00,
2013-10-29 20:56:00,48.2,33.0,30.24,East,90,4.4,4.4,56,0.00,,,0.00,Rainwise IP-100,2013-10-30 00:56:00,
2013-10-29 20:57:00,48.2,33.0,30.24,East,90,4.9,4.9,56,0.00,,,0.00,Rainwise IP-100,2013-10-30 00:57:00,
2013-10-29 20:58:00,48.2,33.0,30.24,East,90,4.7,4.7,56,0.00,,,0.00,Rainwise IP-100,2013-10-30 00:58:00,
2013-10-29 20:59:00,48.2,33.0,30.24,East,90,4.7,4.7,56,0.00,,,0.00,Rainwise IP-100,2013-10-30 00:59:00,
2013-10-29 21:02:00,48.3,33.0,30.24,East,90,4.4,4.4,57,0.00,,,0.00,Rainwise IP-100,2013-10-30 01:02:00,
2013-10-29 21:03:00,48.3,33.0,30.24,East,90,4.0,4.0,57,0.00,,,0.00,Rainwise IP-100,2013-10-30 01:03:00,
2013-10-29 21:04:00,48.3,33.0,30.24,East,90,4.0,4.0,57,0.00,,,0.00,Rainwise IP-100,2013-10-30 01:04:00,
2013-10-29 21:07:00,48.4,33.0,30.24,East,90,4.2,4.2,57,0.00,,,0.00,Rainwise IP-100,2013-10-30 01:07:00,
2013-10-29 21:08:00,48.4,33.0,30.24,East,90,4.0,4.0,57,0.00,,,0.00,Rainwise IP-100,2013-10-30 01:08:00,
2013-10-29 21:09:00,48.3,33.0,30.24,East,90,4.4,4.4,57,0.00,,,0.00,Rainwise IP-100,2013-10-30 01:09:00,
2013-10-29 21:12:00,48.3,33.0,30.24,East,90,4.7,4.7,57,0.00,,,0.00,Rainwise IP-100,2013-10-30 01:12:00,
2013-10-29 21:13:00,48.3,33.0,30.24,East,90,4.0,4.0,57,0.00,,,0.00,Rainwise IP-100,2013-10-30 01:13:00,
2013-10-29 21:14:00,48.3,33.0,30.24,East,90,4.4,4.4,57,0.00,,,0.00,Rainwise IP-100,2013-10-30 01:14:00,
2013-10-29 21:15:00,48.3,33.0,30.24,East,90,4.2,4.2,57,0.00,,,0.00,Rainwise IP-100,2013-10-30 01:15:00,
2013-10-29 21:18:00,48.3,33.0,30.24,East,90,4.2,4.2,57,0.00,,,0.00,Rainwise IP-100,2013-10-30 01:18:00,
2013-10-29 21:19:00,48.3,33.0,30.24,East,90,3.7,4.0,57,0.00,,,0.00,Rainwise IP-100,2013-10-30 01:19:00,
2013-10-29 21:20:00,48.3,33.0,30.24,East,90,3.7,4.0,57,0.00,,,0.00,Rainwise IP-100,2013-10-30 01:20:00,
2013-10-29 21:21:00,48.3,33.0,30.24,East,90,3.5,4.0,57,0.00,,,0.00,Rainwise IP-100,2013-10-30 01:21:00,
2013-10-29 21:23:00,48.3,33.0,30.24,East,90,4.0,4.0,57,0.00,,,0.00,Rainwise IP-100,2013-10-30 01:23:00,
2013-10-29 21:24:00,48.3,33.0,30.24,East,90,4.0,4.0,57,0.00,,,0.00,Rainwise IP-100,2013-10-30 01:24:00,
2013-10-29 21:25:00,48.3,33.0,30.24,East,90,4.2,4.2,57,0.00,,,0.00,Rainwise IP-100,2013-10-30 01:25:00,
2013-10-29 21:26:00,48.3,33.0,30.24,East,90,3.7,4.0,57,0.00,,,0.00,Rainwise IP-100,2013-10-30 01:26:00,
2013-10-29 21:29:00,48.4,33.0,30.23,East,90,4.4,4.4,57,0.00,,,0.00,Rainwise IP-100,2013-10-30 01:29:00,
2013-10-29 21:30:00,48.4,33.0,30.23,East,90,4.2,4.2,57,0.00,,,0.00,Rainwise IP-100,2013-10-30 01:30:00,
2013-10-29 21:31:00,48.4,33.0,30.24,East,90,4.4,4.4,57,0.00,,,0.00,Rainwise IP-100,2013-10-30 01:31:00,
2013-10-29 21:34:00,48.4,33.0,30.24,East,90,4.4,4.4,57,0.00,,,0.00,Rainwise IP-100,2013-10-30 01:34:00,
2013-10-29 21:35:00,48.4,33.0,30.24,East,90,4.7,4.7,57,0.00,,,0.00,Rainwise IP-100,2013-10-30 01:35:00,
2013-10-29 21:36:00,48.4,33.0,30.24,East,90,4.2,4.2,57,0.00,,,0.00,Rainwise IP-100,2013-10-30 01:36:00,
2013-10-29 21:38:00,48.4,33.0,30.24,East,90,3.7,4.0,57,0.00,,,0.00,Rainwise IP-100,2013-10-30 01:38:00,
2013-10-29 21:39:00,48.4,33.0,30.24,East,90,4.7,5.0,57,0.00,,,0.00,Rainwise IP-100,2013-10-30 01:39:00,
2013-10-29 21:40:00,48.4,33.0,30.24,East,90,4.7,5.0,57,0.00,,,0.00,Rainwise IP-100,2013-10-30 01:40:00,
2013-10-29 21:41:00,48.4,33.0,30.24,East,90,4.4,5.0,57,0.00,,,0.00,Rainwise IP-100,2013-10-30 01:41:00,
2013-10-29 21:43:00,48.5,35.0,30.24,East,90,4.7,5.0,57,0.00,,,0.00,Rainwise IP-100,2013-10-30 01:43:00,
2013-10-29 21:44:00,48.5,35.0,30.24,East,90,5.1,5.1,57,0.00,,,0.00,Rainwise IP-100,2013-10-30 01:44:00,
2013-10-29 21:45:00,48.6,35.0,30.24,East,90,4.7,5.0,57,0.00,,,0.00,Rainwise IP-100,2013-10-30 01:45:00,
2013-10-29 21:46:00,48.6,35.0,30.24,East,90,4.4,5.0,57,0.00,,,0.00,Rainwise IP-100,2013-10-30 01:46:00,
2013-10-29 21:48:00,48.6,35.0,30.24,East,90,4.2,5.0,57,0.00,,,0.00,Rainwise IP-100,2013-10-30 01:48:00,
2013-10-29 21:49:00,48.6,35.0,30.24,East,90,3.5,5.0,57,0.00,,,0.00,Rainwise IP-100,2013-10-30 01:49:00,
2013-10-29 21:50:00,48.6,35.0,30.24,East,90,3.7,5.0,57,0.00,,,0.00,Rainwise IP-100,2013-10-30 01:50:00,
2013-10-29 21:51:00,48.6,35.0,30.24,East,90,4.4,4.4,57,0.00,,,0.00,Rainwise IP-100,2013-10-30 01:51:00,
2013-10-29 21:52:00,48.6,35.0,30.24,East,90,4.9,5.0,57,0.00,,,0.00,Rainwise IP-100,2013-10-30 01:52:00,
2013-10-29 21:53:00,48.6,35.0,30.24,East,90,4.0,5.0,57,0.00,,,0.00,Rainwise IP-100,2013-10-30 01:53:00,
2013-10-29 21:54:00,48.6,35.0,30.24,East,90,4.0,5.0,57,0.00,,,0.00,Rainwise IP-100,2013-10-30 01:54:00,
2013-10-29 21:55:00,48.6,35.0,30.24,East,90,4.2,5.0,57,0.00,,,0.00,Rainwise IP-100,2013-10-30 01:55:00,
2013-10-29 21:57:00,48.6,35.0,30.24,East,90,4.9,4.9,57,0.00,,,0.00,Rainwise IP-100,2013-10-30 01:57:00,
2013-10-29 21:58:00,48.6,35.0,30.24,East,90,4.2,4.2,57,0.00,,,0.00,Rainwise IP-100,2013-10-30 01:58:00,
2013-10-29 21:59:00,48.6,35.0,30.24,East,90,4.0,4.0,57,0.00,,,0.00,Rainwise IP-100,2013-10-30 01:59:00,
2013-10-29 22:00:00,48.6,35.0,30.24,East,90,4.4,4.4,57,0.00,,,0.00,Rainwise IP-100,2013-10-30 02:00:00,
2013-10-29 22:03:00,48.6,35.0,30.24,ENE,67,5.8,5.8,57,0.00,,,0.00,Rainwise IP-100,2013-10-30 02:03:00,
2013-10-29 22:04:00,48.6,35.0,30.24,ENE,67,5.4,6.0,57,0.00,,,0.00,Rainwise IP-100,2013-10-30 02:04:00,
2013-10-29 22:05:00,48.5,35.0,30.24,ENE,67,4.7,6.0,57,0.00,,,0.00,Rainwise IP-100,2013-10-30 02:05:00,
2013-10-29 22:07:00,48.5,35.0,30.24,ENE,67,4.0,6.0,57,0.00,,,0.00,Rainwise IP-100,2013-10-30 02:07:00,
2013-10-29 22:08:00,48.4,33.0,30.24,ENE,67,3.3,5.0,57,0.00,,,0.00,Rainwise IP-100,2013-10-30 02:08:00,
2013-10-29 22:09:00,48.3,33.0,30.24,ENE,67,3.7,5.0,57,0.00,,,0.00,Rainwise IP-100,2013-10-30 02:09:00,
2013-10-29 22:10:00,48.3,33.0,30.24,ENE,67,4.7,4.7,57,0.00,,,0.00,Rainwise IP-100,2013-10-30 02:10:00,
2013-10-29 22:12:00,48.1,33.0,30.24,ENE,67,4.7,4.7,57,0.00,,,0.00,Rainwise IP-100,2013-10-30 02:12:00,
2013-10-29 22:13:00,47.9,35.0,30.24,East,90,5.8,5.8,58,0.00,,,0.00,Rainwise IP-100,2013-10-30 02:13:00,
2013-10-29 22:14:00,47.9,35.0,30.24,East,90,4.7,5.0,58,0.00,,,0.00,Rainwise IP-100,2013-10-30 02:14:00,
2013-10-29 22:15:00,47.8,33.0,30.24,East,90,4.4,5.0,58,0.00,,,0.00,Rainwise IP-100,2013-10-30 02:15:00,
2013-10-29 22:16:00,47.8,33.0,30.24,East,90,4.2,5.0,58,0.00,,,0.00,Rainwise IP-100,2013-10-30 02:16:00,
2013-10-29 22:17:00,47.8,33.0,30.24,East,90,4.7,5.0,58,0.00,,,0.00,Rainwise IP-100,2013-10-30 02:17:00,
2013-10-29 22:18:00,47.8,33.0,30.24,East,90,4.9,5.0,58,0.00,,,0.00,Rainwise IP-100,2013-10-30 02:18:00,
2013-10-29 22:19:00,47.8,33.0,30.24,East,90,4.7,5.0,58,0.00,,,0.00,Rainwise IP-100,2013-10-30 02:19:00,
2013-10-29 22:21:00,47.9,35.0,30.24,East,90,4.7,5.0,58,0.00,,,0.00,Rainwise IP-100,2013-10-30 02:21:00,
2013-10-29 22:22:00,48.0,35.0,30.24,East,90,5.6,5.6,58,0.00,,,0.00,Rainwise IP-100,2013-10-30 02:22:00,
2013-10-29 22:24:00,48.0,35.0,30.24,East,90,3.7,5.0,58,0.00,,,0.00,Rainwise IP-100,2013-10-30 02:24:00,
2013-10-29 22:25:00,48.0,35.0,30.24,East,90,3.7,5.0,58,0.00,,,0.00,Rainwise IP-100,2013-10-30 02:25:00,
2013-10-29 22:27:00,48.1,35.0,30.24,ENE,67,4.0,5.0,58,0.00,,,0.00,Rainwise IP-100,2013-10-30 02:27:00,
2013-10-29 22:29:00,48.1,35.0,30.24,ENE,67,3.5,5.0,58,0.00,,,0.00,Rainwise IP-100,2013-10-30 02:29:00,
2013-10-29 22:30:00,48.1,35.0,30.24,ENE,67,3.0,5.0,58,0.00,,,0.00,Rainwise IP-100,2013-10-30 02:30:00,
2013-10-29 22:31:00,48.1,35.0,30.24,ENE,67,3.7,5.0,58,0.00,,,0.00,Rainwise IP-100,2013-10-30 02:31:00,
2013-10-29 22:32:00,48.1,35.0,30.24,ENE,67,3.5,5.0,58,0.00,,,0.00,Rainwise IP-100,2013-10-30 02:32:00,
2013-10-29 22:33:00,48.1,35.0,30.24,ENE,67,3.7,5.0,58,0.00,,,0.00,Rainwise IP-100,2013-10-30 02:33:00,
2013-10-29 22:34:00,48.1,35.0,30.24,ENE,67,4.4,5.0,58,0.00,,,0.00,Rainwise IP-100,2013-10-30 02:34:00,
2013-10-29 22:35:00,48.1,35.0,30.24,ENE,67,4.2,4.2,58,0.00,,,0.00,Rainwise IP-100,2013-10-30 02:35:00,
2013-10-29 22:37:00,48.1,35.0,30.24,ENE,67,4.0,4.0,58,0.00,,,0.00,Rainwise IP-100,2013-10-30 02:37:00,
2013-10-29 22:38:00,48.1,35.0,30.24,ENE,67,4.2,4.2,58,0.00,,,0.00,Rainwise IP-100,2013-10-30 02:38:00,
2013-10-29 22:39:00,48.1,35.0,30.24,ENE,67,4.0,4.0,58,0.00,,,0.00,Rainwise IP-100,2013-10-30 02:39:00,
2013-10-29 22:40:00,48.1,35.0,30.24,ENE,67,4.2,4.2,58,0.00,,,0.00,Rainwise IP-100,2013-10-30 02:40:00,
2013-10-29 22:41:00,48.1,35.0,30.24,ENE,67,3.7,4.0,58,0.00,,,0.00,Rainwise IP-100,2013-10-30 02:41:00,
2013-10-29 22:42:00,48.1,35.0,30.24,ENE,67,3.7,4.0,58,0.00,,,0.00,Rainwise IP-100,2013-10-30 02:42:00,
2013-10-29 22:44:00,48.1,35.0,30.24,ENE,67,4.2,4.2,58,0.00,,,0.00,Rainwise IP-100,2013-10-30 02:44:00,
2013-10-29 22:46:00,48.2,33.0,30.24,ENE,67,4.7,5.0,57,0.00,,,0.00,Rainwise IP-100,2013-10-30 02:46:00,
2013-10-29 22:47:00,48.2,33.0,30.24,ENE,67,5.1,5.1,57,0.00,,,0.00,Rainwise IP-100,2013-10-30 02:47:00,
2013-10-29 22:48:00,48.2,33.0,30.24,ENE,67,5.1,5.1,57,0.00,,,0.00,Rainwise IP-100,2013-10-30 02:48:00,
2013-10-29 22:49:00,48.2,33.0,30.23,ENE,67,4.2,5.0,57,0.00,,,0.00,Rainwise IP-100,2013-10-30 02:49:00,
2013-10-29 22:51:00,48.2,33.0,30.24,ENE,67,4.9,5.0,57,0.00,,,0.00,Rainwise IP-100,2013-10-30 02:51:00,
2013-10-29 22:52:00,48.3,33.0,30.24,ENE,67,3.7,5.0,57,0.00,,,0.00,Rainwise IP-100,2013-10-30 02:52:00,
2013-10-29 22:53:00,48.3,33.0,30.24,ENE,67,4.7,5.0,57,0.00,,,0.00,Rainwise IP-100,2013-10-30 02:53:00,
2013-10-29 22:55:00,48.3,33.0,30.24,ENE,67,4.4,5.0,57,0.00,,,0.00,Rainwise IP-100,2013-10-30 02:55:00,
2013-10-29 22:56:00,48.3,33.0,30.24,ENE,67,5.4,5.4,57,0.00,,,0.00,Rainwise IP-100,2013-10-30 02:56:00,
2013-10-29 22:58:00,48.3,33.0,30.24,ENE,67,3.7,5.0,57,0.00,,,0.00,Rainwise IP-100,2013-10-30 02:58:00,
2013-10-29 22:59:00,48.3,33.0,30.24,ENE,67,4.0,5.0,57,0.00,,,0.00,Rainwise IP-100,2013-10-30 02:59:00,
2013-10-29 23:00:00,48.2,35.0,30.24,ENE,67,4.0,5.0,58,0.00,,,0.00,Rainwise IP-100,2013-10-30 03:00:00,
2013-10-29 23:01:00,48.2,35.0,30.24,ENE,67,6.3,6.3,58,0.00,,,0.00,Rainwise IP-100,2013-10-30 03:01:00,
2013-10-29 23:03:00,48.1,35.0,30.24,ENE,67,4.2,7.0,60,0.00,,,0.00,Rainwise IP-100,2013-10-30 03:03:00,
2013-10-29 23:04:00,48.1,35.0,30.24,ENE,67,3.7,7.0,60,0.00,,,0.00,Rainwise IP-100,2013-10-30 03:04:00,
2013-10-29 23:05:00,48.0,36.0,30.24,East,90,4.7,7.0,61,0.00,,,0.00,Rainwise IP-100,2013-10-30 03:05:00,
2013-10-29 23:06:00,48.0,36.0,30.24,East,90,4.9,7.0,61,0.00,,,0.00,Rainwise IP-100,2013-10-30 03:06:00,
2013-10-29 23:09:00,47.8,35.0,30.24,East,90,5.1,5.1,62,0.00,,,0.00,Rainwise IP-100,2013-10-30 03:09:00,
2013-10-29 23:10:00,47.8,35.0,30.23,East,90,4.4,5.0,62,0.00,,,0.00,Rainwise IP-100,2013-10-30 03:10:00,
2013-10-29 23:11:00,47.8,35.0,30.23,ESE,112,4.7,5.0,62,0.00,,,0.00,Rainwise IP-100,2013-10-30 03:11:00,
2013-10-29 23:13:00,47.8,35.0,30.23,ESE,112,3.7,5.0,62,0.00,,,0.00,Rainwise IP-100,2013-10-30 03:13:00,
2013-10-29 23:14:00,47.8,35.0,30.24,ESE,112,3.3,5.0,62,0.00,,,0.00,Rainwise IP-100,2013-10-30 03:14:00,
2013-10-29 23:15:00,47.8,35.0,30.24,ESE,112,3.7,5.0,62,0.00,,,0.00,Rainwise IP-100,2013-10-30 03:15:00,
2013-10-29 23:16:00,48.0,36.0,30.24,ESE,112,4.2,5.0,61,0.00,,,0.00,Rainwise IP-100,2013-10-30 03:16:00,
2013-10-29 23:17:00,48.0,36.0,30.24,ESE,112,4.2,5.0,61,0.00,,,0.00,Rainwise IP-100,2013-10-30 03:17:00,
2013-10-29 23:19:00,48.2,36.0,30.24,ESE,112,4.7,5.0,61,0.00,,,0.00,Rainwise IP-100,2013-10-30 03:19:00,
2013-10-29 23:20:00,48.2,35.0,30.24,ESE,112,4.0,5.0,60,0.00,,,0.00,Rainwise IP-100,2013-10-30 03:20:00,
2013-10-29 23:22:00,48.3,35.0,30.23,East,90,4.2,5.0,60,0.00,,,0.00,Rainwise IP-100,2013-10-30 03:22:00,
2013-10-29 23:23:00,48.3,35.0,30.23,East,90,4.2,5.0,60,0.00,,,0.00,Rainwise IP-100,2013-10-30 03:23:00,
2013-10-29 23:24:00,48.3,35.0,30.23,East,90,3.3,4.0,59,0.00,,,0.00,Rainwise IP-100,2013-10-30 03:24:00,
2013-10-29 23:25:00,48.3,35.0,30.24,East,90,4.2,4.2,59,0.00,,,0.00,Rainwise IP-100,2013-10-30 03:25:00,
2013-10-29 23:26:00,48.3,35.0,30.24,East,90,4.4,4.4,59,0.00,,,0.00,Rainwise IP-100,2013-10-30 03:26:00,
2013-10-29 23:28:00,48.3,35.0,30.24,East,90,4.0,4.0,59,0.00,,,0.00,Rainwise IP-100,2013-10-30 03:28:00,
2013-10-29 23:30:00,48.2,35.0,30.24,East,90,4.0,4.0,59,0.00,,,0.00,Rainwise IP-100,2013-10-30 03:30:00,
2013-10-29 23:31:00,48.2,35.0,30.23,ESE,112,5.4,5.4,59,0.00,,,0.00,Rainwise IP-100,2013-10-30 03:31:00,
2013-10-29 23:33:00,48.2,35.0,30.24,ESE,112,3.0,5.0,59,0.00,,,0.00,Rainwise IP-100,2013-10-30 03:33:00,
2013-10-29 23:34:00,48.2,35.0,30.24,ESE,112,3.3,5.0,59,0.00,,,0.00,Rainwise IP-100,2013-10-30 03:34:00,
2013-10-29 23:36:00,48.3,35.0,30.24,ESE,112,3.7,5.0,60,0.00,,,0.00,Rainwise IP-100,2013-10-30 03:36:00,
2013-10-29 23:38:00,48.3,36.0,30.23,East,90,4.7,5.0,61,0.00,,,0.00,Rainwise IP-100,2013-10-30 03:38:00,
2013-10-29 23:39:00,48.3,36.0,30.23,East,90,4.4,5.0,61,0.00,,,0.00,Rainwise IP-100,2013-10-30 03:39:00,
2013-10-29 23:41:00,48.3,36.0,30.23,ESE,112,5.6,5.6,61,0.00,,,0.00,Rainwise IP-100,2013-10-30 03:41:00,
2013-10-29 23:42:00,48.3,36.0,30.23,ESE,112,4.7,5.0,62,0.00,,,0.00,Rainwise IP-100,2013-10-30 03:42:00,
2013-10-29 23:44:00,48.3,36.0,30.23,ESE,112,4.2,6.0,62,0.00,,,0.00,Rainwise IP-100,2013-10-30 03:44:00,
2013-10-29 23:47:00,48.2,36.0,30.23,East,90,4.2,6.0,63,0.00,,,0.00,Rainwise IP-100,2013-10-30 03:47:00,
2013-10-29 23:48:00,48.2,37.0,30.23,East,90,3.5,4.0,64,0.00,,,0.00,Rainwise IP-100,2013-10-30 03:48:00,
2013-10-29 23:49:00,48.2,37.0,30.23,East,90,3.5,4.0,64,0.00,,,0.00,Rainwise IP-100,2013-10-30 03:49:00,
2013-10-29 23:52:00,48.2,37.0,30.23,East,90,4.0,5.0,64,0.00,,,0.00,Rainwise IP-100,2013-10-30 03:52:00,
2013-10-29 23:53:00,48.2,37.0,30.24,East,90,4.2,5.0,65,0.00,,,0.00,Rainwise IP-100,2013-10-30 03:53:00,
2013-10-29 23:55:00,48.2,37.0,30.23,East,90,3.7,5.0,65,0.00,,,0.00,Rainwise IP-100,2013-10-30 03:55:00,
2013-10-29 23:57:00,48.1,37.0,30.23,ESE,112,4.0,5.0,65,0.00,,,0.00,Rainwise IP-100,2013-10-30 03:57:00,
2013-10-29 23:59:00,47.9,37.0,30.23,East,90,5.4,5.4,66,0.00,,,0.00,Rainwise IP-100,2013-10-30 03:59:00,